| time (UTC) | temp F | wind direction | speed MPH | gust MPH | rain 1hr in | rain 24hr in | rain mn in | humidity % | barometer mb |
| 20260901000903 | 64 | 0 | 0.0 | 0.0 | 0.00 | 0.00 | 0.00 | 86 | 1018.0 |
| 20260901000803 | 64 | 0 | 0.0 | 0.0 | 0.00 | 0.00 | 0.00 | 86 | 1018.0 |
| 20260901000703 | 64 | 0 | 0.0 | 0.0 | 0.00 | 0.00 | 0.00 | 85 | 1017.9 |
| 20260901000603 | 64 | 0 | 0.0 | 0.0 | 0.00 | 0.00 | 0.00 | 85 | 1017.9 |
| 20260901000503 | 64 | 0 | 0.0 | 0.0 | 0.00 | 0.00 | 0.00 | 85 | 1017.7 |
| 20260901000405 | 64 | 112 | 0.0 | 2.0 | 0.00 | 0.00 | 0.00 | 85 | 1017.9 |
| 20260901000303 | 64 | 112 | 0.0 | 2.0 | 0.00 | 0.00 | 0.00 | 85 | 1017.8 |
| 20260901000204 | 64 | 112 | 0.0 | 2.0 | 0.00 | 0.00 | 0.00 | 85 | 1017.9 |
| 20260901000103 | 64 | 112 | 0.0 | 2.0 | 0.00 | 0.00 | 0.00 | 85 | 1017.8 |
| 20260901000003 | 64 | 112 | 0.0 | 2.0 | 0.00 | 0.00 | 0.00 | 85 | 1017.9 |
| 20260831235903 | 64 | 124 | 1.0 | 2.0 | 0.00 | 0.00 | 0.00 | 85 | 1017.6 |
| 20260831235803 | 64 | 135 | 0.0 | 2.0 | 0.00 | 0.00 | 0.00 | 85 | 1017.8 |
| 20260831235703 | 64 | 140 | 0.0 | 2.0 | 0.00 | 0.00 | 0.00 | 85 | 1017.7 |
| 20260831235617 | 64 | 147 | 0.0 | 2.0 | 0.00 | 0.00 | 0.00 | 85 | 1017.6 |
| 20260831235503 | 64 | 147 | 0.0 | 2.0 | 0.00 | 0.00 | 0.00 | 85 | 1017.7 |
| 20260831235306 | 64 | 151 | 1.0 | 2.0 | 0.00 | 0.00 | 0.00 | 85 | 1017.7 |
| 20260831235203 | 64 | 152 | 1.0 | 2.0 | 0.00 | 0.00 | 0.00 | 85 | 1017.5 |
| 20260831235116 | 64 | 142 | 1.0 | 2.0 | 0.00 | 0.00 | 0.00 | 85 | 1017.6 |
| 20260831235103 | 64 | 143 | 1.0 | 2.0 | 0.00 | 0.00 | 0.00 | 85 | 1017.8 |
| 20260831235003 | 64 | 191 | 0.0 | 2.0 | 0.00 | 0.00 | 0.00 | 84 | 1017.6 |
| 20260831234803 | 64 | 117 | 1.0 | 4.0 | 0.00 | 0.00 | 0.00 | 84 | 1017.4 |
| 20260831234703 | 64 | 115 | 0.0 | 4.0 | 0.00 | 0.00 | 0.00 | 84 | 1017.5 |
| 20260831234603 | 64 | 111 | 1.0 | 4.0 | 0.00 | 0.00 | 0.00 | 84 | 1017.4 |
| 20260831234503 | 64 | 107 | 0.0 | 4.0 | 0.00 | 0.00 | 0.00 | 84 | 1017.8 |
| 20260831234403 | 64 | 107 | 1.0 | 4.0 | 0.00 | 0.00 | 0.00 | 84 | 1017.5 |
| 20260831234303 | 64 | 115 | 0.0 | 2.0 | 0.00 | 0.00 | 0.00 | 84 | 1017.5 |
| 20260831234103 | 64 | 122 | 0.0 | 2.0 | 0.00 | 0.00 | 0.00 | 84 | 1017.4 |
| 20260831234003 | 64 | 135 | 0.0 | 2.0 | 0.00 | 0.00 | 0.00 | 84 | 1017.3 |
| 20260831233918 | 64 | 140 | 1.0 | 2.0 | 0.00 | 0.00 | 0.00 | 84 | 1017.4 |
| 20260831233903 | 64 | 139 | 1.0 | 2.0 | 0.00 | 0.00 | 0.00 | 84 | 1017.2 |
| 20260831233803 | 64 | 137 | 0.0 | 2.0 | 0.00 | 0.00 | 0.00 | 84 | 1017.5 |
| 20260831233603 | 64 | 151 | 1.0 | 4.0 | 0.00 | 0.00 | 0.00 | 84 | 1017.2 |
| 20260831233503 | 64 | 134 | 1.0 | 4.0 | 0.00 | 0.00 | 0.00 | 84 | 1017.4 |
| 20260831233403 | 65 | 130 | 1.0 | 4.0 | 0.00 | 0.00 | 0.00 | 84 | 1017.3 |
| 20260831233303 | 65 | 130 | 1.0 | 4.0 | 0.00 | 0.00 | 0.00 | 84 | 1017.2 |
| 20260831233203 | 65 | 120 | 2.0 | 4.0 | 0.00 | 0.00 | 0.00 | 84 | 1017.4 |
| 20260831233103 | 65 | 115 | 2.0 | 4.0 | 0.00 | 0.00 | 0.00 | 84 | 1017.4 |
| 20260831233003 | 65 | 111 | 1.0 | 4.0 | 0.00 | 0.00 | 0.00 | 83 | 1017.4 |
| 20260831232903 | 65 | 111 | 2.0 | 4.0 | 0.00 | 0.00 | 0.00 | 84 | 1017.2 |
| 20260831232803 | 65 | 116 | 2.0 | 4.0 | 0.00 | 0.00 | 0.00 | 84 | 1017.4 |
| 20260831232703 | 65 | 114 | 2.0 | 4.0 | 0.00 | 0.00 | 0.00 | 84 | 1017.3 |
| 20260831232603 | 65 | 112 | 2.0 | 4.0 | 0.00 | 0.00 | 0.00 | 84 | 1017.3 |
| 20260831232503 | 65 | 113 | 2.0 | 4.0 | 0.00 | 0.00 | 0.00 | 84 | 1017.1 |
| 20260831232403 | 64 | 120 | 2.0 | 4.0 | 0.00 | 0.00 | 0.00 | 84 | 1017.1 |
| 20260831232317 | 65 | 111 | 2.0 | 2.0 | 0.00 | 0.00 | 0.00 | 84 | 1017.1 |
| 20260831232305 | 65 | 110 | 2.0 | 2.0 | 0.00 | 0.00 | 0.00 | 84 | 1017.1 |
| 20260831232203 | 65 | 114 | 1.0 | 2.0 | 0.00 | 0.00 | 0.00 | 84 | 1017.0 |
| 20260831232003 | 65 | 138 | 0.0 | 2.0 | 0.00 | 0.00 | 0.00 | 83 | 1016.9 |
| 20260831231903 | 65 | 128 | 1.0 | 4.0 | 0.00 | 0.00 | 0.00 | 83 | 1017.0 |
| 20260831231818 | 65 | 128 | 1.0 | 4.0 | 0.00 | 0.00 | 0.00 | 83 | 1016.9 |
| 20260831231803 | 65 | 125 | 1.0 | 4.0 | 0.00 | 0.00 | 0.00 | 83 | 1016.9 |
| 20260831231703 | 65 | 120 | 1.0 | 4.0 | 0.00 | 0.00 | 0.00 | 83 | 1016.9 |
| 20260831231503 | 65 | 126 | 2.0 | 4.0 | 0.00 | 0.00 | 0.00 | 83 | 1017.2 |
| 20260831231403 | 65 | 122 | 1.0 | 4.0 | 0.00 | 0.00 | 0.00 | 83 | 1017.0 |
| 20260831231304 | 65 | 113 | 1.0 | 4.0 | 0.00 | 0.00 | 0.00 | 83 | 1016.8 |
| 20260831231203 | 65 | 114 | 0.0 | 4.0 | 0.00 | 0.00 | 0.00 | 83 | 1017.0 |
| 20260831231103 | 65 | 104 | 1.0 | 4.0 | 0.00 | 0.00 | 0.00 | 83 | 1017.1 |
| 20260831231003 | 65 | 97 | 1.0 | 4.0 | 0.00 | 0.00 | 0.00 | 83 | 1016.9 |
| 20260831230903 | 65 | 102 | 1.0 | 4.0 | 0.00 | 0.00 | 0.00 | 83 | 1016.8 |
| 20260831230803 | 65 | 103 | 2.0 | 4.0 | 0.00 | 0.00 | 0.00 | 83 | 1016.8 |
| 20260831230717 | 65 | 104 | 1.0 | 4.0 | 0.00 | 0.00 | 0.00 | 83 | 1017.1 |
| 20260831230703 | 65 | 104 | 1.0 | 4.0 | 0.00 | 0.00 | 0.00 | 83 | 1017.0 |
| 20260831230603 | 65 | 103 | 1.0 | 4.0 | 0.00 | 0.00 | 0.00 | 83 | 1016.7 |
| 20260831230403 | 65 | 108 | 1.0 | 4.0 | 0.00 | 0.00 | 0.00 | 83 | 1016.8 |
| 20260831230317 | 65 | 106 | 0.0 | 4.0 | 0.00 | 0.00 | 0.00 | 83 | 1016.9 |
| 20260831230303 | 65 | 106 | 0.0 | 4.0 | 0.00 | 0.00 | 0.00 | 83 | 1016.7 |
| 20260831230203 | 65 | 99 | 0.0 | 4.0 | 0.00 | 0.00 | 0.00 | 83 | 1016.9 |
| 20260831230003 | 65 | 101 | 2.0 | 4.0 | 0.00 | 0.00 | 0.00 | 83 | 1016.8 |
| 20260831225909 | 65 | 100 | 0.0 | 4.0 | 0.00 | 0.00 | 0.00 | 83 | 1016.7 |
| 20260831225803 | 65 | 99 | 2.0 | 4.0 | 0.00 | 0.00 | 0.00 | 83 | 1016.5 |
| 20260831225703 | 65 | 99 | 1.0 | 4.0 | 0.00 | 0.00 | 0.00 | 83 | 1016.5 |
| 20260831225603 | 65 | 93 | 0.0 | 4.0 | 0.00 | 0.00 | 0.00 | 82 | 1016.8 |
| 20260831225503 | 65 | 92 | 2.0 | 4.0 | 0.00 | 0.00 | 0.00 | 82 | 1016.7 |
| 20260831225403 | 65 | 95 | 2.0 | 4.0 | 0.00 | 0.00 | 0.00 | 82 | 1016.9 |
| 20260831225306 | 65 | 100 | 2.0 | 4.0 | 0.00 | 0.00 | 0.00 | 82 | 1016.7 |
| 20260831225203 | 65 | 101 | 2.0 | 4.0 | 0.00 | 0.00 | 0.00 | 82 | 1016.5 |
| 20260831225103 | 65 | 104 | 2.0 | 6.0 | 0.00 | 0.00 | 0.00 | 82 | 1016.5 |
| 20260831225005 | 65 | 100 | 2.0 | 6.0 | 0.00 | 0.00 | 0.00 | 82 | 1016.5 |
| 20260831224917 | 65 | 101 | 2.0 | 6.0 | 0.00 | 0.00 | 0.00 | 82 | 1016.6 |
| 20260831224903 | 65 | 103 | 2.0 | 6.0 | 0.00 | 0.00 | 0.00 | 82 | 1016.6 |
| 20260831224803 | 65 | 103 | 1.0 | 6.0 | 0.00 | 0.00 | 0.00 | 82 | 1016.5 |
| 20260831224603 | 65 | 104 | 3.0 | 6.0 | 0.00 | 0.00 | 0.00 | 82 | 1016.7 |
| 20260831224503 | 65 | 101 | 3.0 | 6.0 | 0.00 | 0.00 | 0.00 | 82 | 1016.6 |
| 20260831224403 | 65 | 93 | 2.0 | 6.0 | 0.00 | 0.00 | 0.00 | 82 | 1016.5 |
| 20260831224303 | 65 | 89 | 3.0 | 9.0 | 0.00 | 0.00 | 0.00 | 82 | 1016.7 |
| 20260831224218 | 65 | 96 | 3.0 | 9.0 | 0.00 | 0.00 | 0.00 | 82 | 1016.6 |
| 20260831224203 | 65 | 98 | 3.0 | 9.0 | 0.00 | 0.00 | 0.00 | 82 | 1016.6 |
| 20260831224118 | 65 | 103 | 2.0 | 9.0 | 0.00 | 0.00 | 0.00 | 82 | 1016.6 |
| 20260831224103 | 65 | 105 | 2.0 | 9.0 | 0.00 | 0.00 | 0.00 | 82 | 1016.6 |
| 20260831223803 | 65 | 120 | 4.0 | 9.0 | 0.00 | 0.00 | 0.00 | 82 | 1016.5 |
| 20260831223703 | 65 | 122 | 3.0 | 9.0 | 0.00 | 0.00 | 0.00 | 82 | 1016.5 |
| 20260831223603 | 65 | 121 | 2.0 | 9.0 | 0.00 | 0.00 | 0.00 | 82 | 1016.6 |
| 20260831223403 | 65 | 109 | 2.0 | 9.0 | 0.00 | 0.00 | 0.00 | 82 | 1016.8 |
| 20260831223303 | 65 | 97 | 4.0 | 9.0 | 0.00 | 0.00 | 0.00 | 82 | 1016.5 |
| 20260831223203 | 65 | 93 | 2.0 | 7.0 | 0.00 | 0.00 | 0.00 | 82 | 1016.3 |
| 20260831223118 | 65 | 89 | 1.0 | 6.0 | 0.00 | 0.00 | 0.00 | 82 | 1016.5 |
| 20260831223103 | 65 | 88 | 2.0 | 6.0 | 0.00 | 0.00 | 0.00 | 82 | 1016.4 |
| 20260831223003 | 65 | 91 | 2.0 | 6.0 | 0.00 | 0.00 | 0.00 | 82 | 1016.2 |
| 20260831222803 | 66 | 106 | 2.0 | 6.0 | 0.00 | 0.00 | 0.00 | 82 | 1016.2 |
| 20260831222703 | 66 | 107 | 3.0 | 6.0 | 0.00 | 0.00 | 0.00 | 82 | 1016.4 |
| 20260831222603 | 65 | 108 | 3.0 | 6.0 | 0.00 | 0.00 | 0.00 | 82 | 1016.2 |
| 20260831222503 | 66 | 108 | 4.0 | 6.0 | 0.00 | 0.00 | 0.00 | 82 | 1016.3 |
| 20260831222418 | 66 | 105 | 2.0 | 6.0 | 0.00 | 0.00 | 0.00 | 82 | 1016.4 |
| 20260831222403 | 66 | 104 | 2.0 | 6.0 | 0.00 | 0.00 | 0.00 | 82 | 1016.4 |
| 20260831222306 | 66 | 107 | 2.0 | 6.0 | 0.00 | 0.00 | 0.00 | 82 | 1016.3 |
| 20260831222103 | 66 | 112 | 2.0 | 7.0 | 0.00 | 0.00 | 0.00 | 82 | 1016.1 |
| 20260831222003 | 66 | 124 | 4.0 | 7.0 | 0.00 | 0.00 | 0.00 | 82 | 1016.4 |
| 20260831221903 | 66 | 125 | 2.0 | 7.0 | 0.00 | 0.00 | 0.00 | 82 | 1016.3 |
| 20260831221803 | 66 | 129 | 2.0 | 7.0 | 0.00 | 0.00 | 0.00 | 81 | 1016.3 |
| 20260831221703 | 66 | 130 | 1.0 | 7.0 | 0.00 | 0.00 | 0.00 | 81 | 1015.9 |
| 20260831221603 | 66 | 136 | 4.0 | 7.0 | 0.00 | 0.00 | 0.00 | 81 | 1016.4 |
| 20260831221503 | 66 | 127 | 1.0 | 6.0 | 0.00 | 0.00 | 0.00 | 81 | 1016.1 |
| 20260831221418 | 66 | 130 | 2.0 | 6.0 | 0.00 | 0.00 | 0.00 | 81 | 1016.4 |
| 20260831221403 | 66 | 127 | 2.0 | 6.0 | 0.00 | 0.00 | 0.00 | 81 | 1016.4 |
| 20260831221303 | 66 | 122 | 1.0 | 7.0 | 0.00 | 0.00 | 0.00 | 81 | 1016.1 |
| 20260831221003 | 66 | 118 | 1.0 | 7.0 | 0.00 | 0.00 | 0.00 | 81 | 1016.1 |
| 20260831220903 | 66 | 141 | 2.0 | 7.0 | 0.00 | 0.00 | 0.00 | 81 | 1016.0 |
| 20260831220803 | 66 | 187 | 3.0 | 7.0 | 0.00 | 0.00 | 0.00 | 81 | 1016.1 |
| 20260831220703 | 66 | 186 | 2.0 | 4.0 | 0.00 | 0.00 | 0.00 | 81 | 1016.2 |
| 20260831220603 | 66 | 169 | 2.0 | 4.0 | 0.00 | 0.00 | 0.00 | 81 | 1016.1 |
| 20260831220503 | 66 | 166 | 2.0 | 4.0 | 0.00 | 0.00 | 0.00 | 81 | 1016.3 |
| 20260831220418 | 66 | 124 | 2.0 | 6.0 | 0.00 | 0.00 | 0.00 | 81 | 1016.4 |
| 20260831220403 | 66 | 117 | 2.0 | 6.0 | 0.00 | 0.00 | 0.00 | 81 | 1016.4 |
| 20260831220303 | 66 | 103 | 2.0 | 6.0 | 0.00 | 0.00 | 0.00 | 81 | 1016.3 |
| 20260831220103 | 66 | 101 | 0.0 | 6.0 | 0.00 | 0.00 | 0.00 | 81 | 1016.2 |
| 20260831220003 | 66 | 99 | 2.0 | 6.0 | 0.00 | 0.00 | 0.00 | 81 | 1016.2 |
| 20260831215903 | 66 | 106 | 3.0 | 6.0 | 0.00 | 0.00 | 0.00 | 81 | 1016.3 |
| 20260831215803 | 66 | 103 | 1.0 | 7.0 | 0.00 | 0.00 | 0.00 | 81 | 1016.1 |
| 20260831215703 | 66 | 95 | 2.0 | 7.0 | 0.00 | 0.00 | 0.00 | 81 | 1016.3 |
| 20260831215603 | 66 | 87 | 1.0 | 8.0 | 0.00 | 0.00 | 0.00 | 81 | 1016.4 |
| 20260831215503 | 66 | 73 | 2.0 | 9.0 | 0.00 | 0.00 | 0.00 | 81 | 1016.3 |
| 20260831215418 | 66 | 72 | 3.0 | 9.0 | 0.00 | 0.00 | 0.00 | 81 | 1016.1 |
| 20260831215403 | 66 | 71 | 3.0 | 9.0 | 0.00 | 0.00 | 0.00 | 81 | 1016.1 |
| 20260831215306 | 66 | 62 | 4.0 | 9.0 | 0.00 | 0.00 | 0.00 | 81 | 1015.9 |
| 20260831215103 | 66 | 156 | 5.0 | 9.0 | 0.00 | 0.00 | 0.00 | 80 | 1016.1 |
| 20260831215003 | 66 | 171 | 1.0 | 7.0 | 0.00 | 0.00 | 0.00 | 80 | 1015.9 |
| 20260831214917 | 66 | 169 | 0.0 | 7.0 | 0.00 | 0.00 | 0.00 | 80 | 1016.2 |
| 20260831214903 | 66 | 165 | 0.0 | 7.0 | 0.00 | 0.00 | 0.00 | 80 | 1016.2 |
| 20260831214803 | 66 | 183 | 0.0 | 7.0 | 0.00 | 0.00 | 0.00 | 80 | 1016.0 |
| 20260831214603 | 66 | 117 | 2.0 | 8.0 | 0.00 | 0.00 | 0.00 | 80 | 1015.8 |
| 20260831214503 | 66 | 124 | 2.0 | 8.0 | 0.00 | 0.00 | 0.00 | 80 | 1015.8 |
| 20260831214403 | 66 | 125 | 2.0 | 8.0 | 0.00 | 0.00 | 0.00 | 80 | 1015.9 |
| 20260831214316 | 66 | 119 | 2.0 | 8.0 | 0.00 | 0.00 | 0.00 | 80 | 1016.1 |
| 20260831214303 | 66 | 123 | 2.0 | 8.0 | 0.00 | 0.00 | 0.00 | 80 | 1015.9 |
| 20260831214217 | 66 | 132 | 1.0 | 7.0 | 0.00 | 0.00 | 0.00 | 80 | 1015.8 |
| 20260831214204 | 66 | 135 | 1.0 | 7.0 | 0.00 | 0.00 | 0.00 | 80 | 1015.8 |
| 20260831213903 | 66 | 135 | 2.0 | 7.0 | 0.00 | 0.00 | 0.00 | 80 | 1015.8 |
| 20260831213803 | 66 | 141 | 3.0 | 7.0 | 0.00 | 0.00 | 0.00 | 80 | 1015.7 |
| 20260831213703 | 66 | 107 | 3.0 | 6.0 | 0.00 | 0.00 | 0.00 | 80 | 1015.7 |
| 20260831213617 | 66 | 96 | 2.0 | 6.0 | 0.00 | 0.00 | 0.00 | 80 | 1015.6 |
| 20260831213603 | 66 | 91 | 2.0 | 6.0 | 0.00 | 0.00 | 0.00 | 80 | 1015.6 |
| 20260831213503 | 67 | 107 | 2.0 | 6.0 | 0.00 | 0.00 | 0.00 | 80 | 1015.7 |
| 20260831213303 | 67 | 107 | 2.0 | 11.0 | 0.00 | 0.00 | 0.00 | 80 | 1015.7 |
| 20260831213203 | 67 | 109 | 3.0 | 11.0 | 0.00 | 0.00 | 0.00 | 80 | 1015.6 |
| 20260831213103 | 67 | 128 | 4.0 | 11.0 | 0.00 | 0.00 | 0.00 | 80 | 1015.7 |
| 20260831213003 | 67 | 117 | 3.0 | 11.0 | 0.00 | 0.00 | 0.00 | 80 | 1015.5 |
| 20260831212903 | 67 | 110 | 4.0 | 11.0 | 0.00 | 0.00 | 0.00 | 80 | 1015.6 |
| 20260831212817 | 67 | 109 | 4.0 | 11.0 | 0.00 | 0.00 | 0.00 | 80 | 1015.6 |
| 20260831212803 | 67 | 112 | 4.0 | 11.0 | 0.00 | 0.00 | 0.00 | 80 | 1015.6 |
| 20260831212703 | 67 | 103 | 4.0 | 8.0 | 0.00 | 0.00 | 0.00 | 80 | 1015.6 |
| 20260831212503 | 67 | 82 | 4.0 | 9.0 | 0.00 | 0.00 | 0.00 | 80 | 1015.5 |
| 20260831212403 | 67 | 70 | 4.0 | 9.0 | 0.00 | 0.00 | 0.00 | 80 | 1015.7 |
| 20260831212306 | 67 | 51 | 3.0 | 9.0 | 0.00 | 0.00 | 0.00 | 80 | 1015.5 |
| 20260831212217 | 67 | 39 | 2.0 | 9.0 | 0.00 | 0.00 | 0.00 | 80 | 1015.4 |
| 20260831212203 | 67 | 47 | 2.0 | 9.0 | 0.00 | 0.00 | 0.00 | 80 | 1015.4 |
| 20260831212103 | 67 | 69 | 3.0 | 9.0 | 0.00 | 0.00 | 0.00 | 80 | 1015.4 |
| 20260831211903 | 67 | 94 | 2.0 | 7.0 | 0.00 | 0.00 | 0.00 | 79 | 1015.5 |
| 20260831211803 | 67 | 86 | 4.0 | 7.0 | 0.00 | 0.00 | 0.00 | 79 | 1015.4 |
| 20260831211703 | 67 | 112 | 1.0 | 7.0 | 0.00 | 0.00 | 0.00 | 79 | 1015.4 |
| 20260831211603 | 67 | 111 | 2.0 | 7.0 | 0.00 | 0.00 | 0.00 | 79 | 1015.5 |
| 20260831211503 | 67 | 121 | 2.0 | 7.0 | 0.00 | 0.00 | 0.00 | 79 | 1015.3 |
| 20260831211403 | 67 | 123 | 2.0 | 8.0 | 0.00 | 0.00 | 0.00 | 80 | 1015.5 |
| 20260831211303 | 67 | 142 | 3.0 | 8.0 | 0.00 | 0.00 | 0.00 | 79 | 1015.6 |
| 20260831211203 | 67 | 152 | 2.0 | 8.0 | 0.00 | 0.00 | 0.00 | 79 | 1015.4 |
| 20260831211103 | 67 | 138 | 2.0 | 8.0 | 0.00 | 0.00 | 0.00 | 80 | 1015.5 |
| 20260831211003 | 67 | 128 | 3.0 | 8.0 | 0.00 | 0.00 | 0.00 | 79 | 1015.6 |
| 20260831210904 | 67 | 126 | 4.0 | 8.0 | 0.00 | 0.00 | 0.00 | 79 | 1015.6 |
| 20260831210803 | 67 | 116 | 3.0 | 8.0 | 0.00 | 0.00 | 0.00 | 79 | 1015.4 |
| 20260831210718 | 67 | 101 | 3.0 | 8.0 | 0.00 | 0.00 | 0.00 | 79 | 1015.5 |
| 20260831210603 | 67 | 91 | 2.0 | 11.0 | 0.00 | 0.00 | 0.00 | 79 | 1015.6 |
| 20260831210418 | 67 | 96 | 3.0 | 11.0 | 0.00 | 0.00 | 0.00 | 79 | 1015.3 |
| 20260831210403 | 67 | 94 | 3.0 | 11.0 | 0.00 | 0.00 | 0.00 | 79 | 1015.3 |
| 20260831210303 | 67 | 88 | 3.0 | 11.0 | 0.00 | 0.00 | 0.00 | 79 | 1015.5 |
| 20260831210103 | 67 | 85 | 4.0 | 11.0 | 0.00 | 0.00 | 0.00 | 79 | 1015.2 |
| 20260831210004 | 67 | 90 | 4.0 | 8.0 | 0.00 | 0.00 | 0.00 | 79 | 1015.3 |
| 20260831205903 | 67 | 80 | 3.0 | 8.0 | 0.00 | 0.00 | 0.00 | 79 | 1015.5 |
| 20260831205817 | 67 | 77 | 4.0 | 7.0 | 0.00 | 0.00 | 0.00 | 79 | 1015.3 |
| 20260831205803 | 67 | 76 | 4.0 | 7.0 | 0.00 | 0.00 | 0.00 | 79 | 1015.3 |
| 20260831205703 | 67 | 53 | 2.0 | 7.0 | 0.00 | 0.00 | 0.00 | 79 | 1015.2 |
| 20260831205503 | 67 | 99 | 2.0 | 8.0 | 0.00 | 0.00 | 0.00 | 79 | 1015.3 |
| 20260831205403 | 67 | 116 | 2.0 | 8.0 | 0.00 | 0.00 | 0.00 | 79 | 1015.4 |
| 20260831205305 | 67 | 100 | 4.0 | 8.0 | 0.00 | 0.00 | 0.00 | 79 | 1015.5 |
| 20260831205203 | 67 | 120 | 3.0 | 8.0 | 0.00 | 0.00 | 0.00 | 80 | 1015.2 |
| 20260831205103 | 67 | 108 | 4.0 | 8.0 | 0.00 | 0.00 | 0.00 | 80 | 1015.1 |
| 20260831205003 | 67 | 98 | 1.0 | 11.0 | 0.00 | 0.00 | 0.00 | 80 | 1015.0 |
| 20260831204903 | 67 | 91 | 2.0 | 11.0 | 0.00 | 0.00 | 0.00 | 80 | 1015.1 |
| 20260831204803 | 67 | 86 | 2.0 | 11.0 | 0.00 | 0.00 | 0.00 | 80 | 1015.0 |
| 20260831204703 | 67 | 75 | 4.0 | 11.0 | 0.00 | 0.00 | 0.00 | 80 | 1015.1 |
| 20260831204603 | 67 | 60 | 2.0 | 11.0 | 0.00 | 0.00 | 0.00 | 79 | 1015.1 |
| 20260831204503 | 67 | 40 | 4.0 | 11.0 | 0.00 | 0.00 | 0.00 | 79 | 1015.0 |
| 20260831204403 | 67 | 36 | 4.0 | 11.0 | 0.00 | 0.00 | 0.00 | 79 | 1015.2 |
| 20260831204318 | 67 | 49 | 3.0 | 11.0 | 0.00 | 0.00 | 0.00 | 79 | 1015.1 |
| 20260831204303 | 67 | 56 | 2.0 | 11.0 | 0.00 | 0.00 | 0.00 | 79 | 1015.1 |
| 20260831204203 | 67 | 82 | 2.0 | 11.0 | 0.00 | 0.00 | 0.00 | 79 | 1014.9 |
| 20260831204003 | 67 | 112 | 3.0 | 11.0 | 0.00 | 0.00 | 0.00 | 79 | 1015.2 |
| 20260831203903 | 67 | 116 | 4.0 | 11.0 | 0.00 | 0.00 | 0.00 | 79 | 1015.0 |
| 20260831203803 | 67 | 122 | 4.0 | 11.0 | 0.00 | 0.00 | 0.00 | 79 | 1014.9 |
| 20260831203703 | 67 | 106 | 3.0 | 11.0 | 0.00 | 0.00 | 0.00 | 79 | 1015.0 |
| 20260831203603 | 67 | 121 | 3.0 | 11.0 | 0.00 | 0.00 | 0.00 | 79 | 1015.0 |
| 20260831203503 | 68 | 133 | 4.0 | 9.0 | 0.00 | 0.00 | 0.00 | 79 | 1015.0 |
| 20260831203403 | 68 | 118 | 1.0 | 9.0 | 0.00 | 0.00 | 0.00 | 79 | 1015.2 |
| 20260831203303 | 67 | 130 | 2.0 | 9.0 | 0.00 | 0.00 | 0.00 | 79 | 1015.1 |
| 20260831203217 | 67 | 129 | 2.0 | 9.0 | 0.00 | 0.00 | 0.00 | 79 | 1014.9 |
| 20260831203203 | 67 | 131 | 2.0 | 9.0 | 0.00 | 0.00 | 0.00 | 79 | 1014.9 |
| 20260831203103 | 67 | 118 | 2.0 | 9.0 | 0.00 | 0.00 | 0.00 | 79 | 1015.0 |
| 20260831202903 | 67 | 219 | 5.0 | 9.0 | 0.00 | 0.00 | 0.00 | 79 | 1015.0 |
| 20260831202803 | 68 | 162 | 4.0 | 9.0 | 0.00 | 0.00 | 0.00 | 79 | 1014.9 |
| 20260831202703 | 68 | 124 | 2.0 | 9.0 | 0.00 | 0.00 | 0.00 | 79 | 1014.8 |
| 20260831202603 | 68 | 136 | 4.0 | 9.0 | 0.00 | 0.00 | 0.00 | 79 | 1014.9 |
| 20260831202503 | 68 | 99 | 2.0 | 8.0 | 0.00 | 0.00 | 0.00 | 79 | 1015.0 |
| 20260831202403 | 68 | 100 | 2.0 | 8.0 | 0.00 | 0.00 | 0.00 | 79 | 1014.8 |
| 20260831202318 | 68 | 96 | 2.0 | 8.0 | 0.00 | 0.00 | 0.00 | 79 | 1014.8 |
| 20260831202306 | 68 | 92 | 2.0 | 8.0 | 0.00 | 0.00 | 0.00 | 79 | 1014.9 |
| 20260831202003 | 68 | 78 | 4.0 | 8.0 | 0.00 | 0.00 | 0.00 | 79 | 1014.8 |
| 20260831201903 | 68 | 72 | 4.0 | 8.0 | 0.00 | 0.00 | 0.00 | 79 | 1014.8 |
| 20260831201803 | 68 | 70 | 2.0 | 8.0 | 0.00 | 0.00 | 0.00 | 79 | 1015.0 |
| 20260831201703 | 68 | 99 | 2.0 | 11.0 | 0.00 | 0.00 | 0.00 | 79 | 1015.0 |
| 20260831201603 | 68 | 100 | 2.0 | 11.0 | 0.00 | 0.00 | 0.00 | 79 | 1014.8 |
| 20260831201503 | 68 | 114 | 2.0 | 11.0 | 0.00 | 0.00 | 0.00 | 80 | 1014.9 |
| 20260831201417 | 68 | 115 | 4.0 | 11.0 | 0.00 | 0.00 | 0.00 | 79 | 1014.7 |
| 20260831201403 | 68 | 113 | 4.0 | 11.0 | 0.00 | 0.00 | 0.00 | 79 | 1014.7 |
| 20260831201303 | 68 | 110 | 4.0 | 11.0 | 0.00 | 0.00 | 0.00 | 79 | 1014.7 |
| 20260831201003 | 68 | 97 | 3.0 | 9.0 | 0.00 | 0.00 | 0.00 | 79 | 1014.7 |
| 20260831200905 | 68 | 103 | 4.0 | 9.0 | 0.00 | 0.00 | 0.00 | 79 | 1014.7 |
| 20260831200803 | 68 | 109 | 5.0 | 9.0 | 0.00 | 0.00 | 0.00 | 79 | 1014.9 |
| 20260831200718 | 68 | 126 | 4.0 | 8.0 | 0.00 | 0.00 | 0.00 | 79 | 1014.8 |
| 20260831200603 | 68 | 172 | 2.0 | 7.0 | 0.00 | 0.00 | 0.00 | 79 | 1014.8 |
| 20260831200403 | 68 | 183 | 3.0 | 6.0 | 0.00 | 0.00 | 0.00 | 79 | 1014.7 |
| 20260831200318 | 68 | 190 | 3.0 | 6.0 | 0.00 | 0.00 | 0.00 | 78 | 1014.9 |
| 20260831200303 | 69 | 197 | 2.0 | 4.0 | 0.00 | 0.00 | 0.00 | 78 | 1014.8 |
| 20260831200203 | 69 | 138 | 2.0 | 6.0 | 0.00 | 0.00 | 0.00 | 78 | 1014.7 |
| 20260831200003 | 69 | 86 | 1.0 | 8.0 | 0.00 | 0.00 | 0.00 | 78 | 1014.8 |
| 20260831195903 | 69 | 82 | 1.0 | 8.0 | 0.00 | 0.00 | 0.00 | 78 | 1014.6 |
| 20260831195817 | 69 | 81 | 2.0 | 8.0 | 0.00 | 0.00 | 0.00 | 78 | 1014.5 |
| 20260831195803 | 69 | 79 | 2.0 | 8.0 | 0.00 | 0.00 | 0.00 | 78 | 1014.5 |
| 20260831195703 | 69 | 77 | 3.0 | 8.0 | 0.00 | 0.00 | 0.00 | 78 | 1014.7 |
| 20260831195503 | 69 | 103 | 0.0 | 4.0 | 0.00 | 0.00 | 0.00 | 78 | 1014.7 |
| 20260831195417 | 69 | 106 | 1.0 | 4.0 | 0.00 | 0.00 | 0.00 | 79 | 1014.8 |
| 20260831195403 | 69 | 104 | 1.0 | 4.0 | 0.00 | 0.00 | 0.00 | 79 | 1014.8 |
| 20260831195321 | 69 | 106 | 1.0 | 7.0 | 0.00 | 0.00 | 0.00 | 79 | 1014.5 |
| 20260831195003 | 68 | 114 | 2.0 | 7.0 | 0.00 | 0.00 | 0.00 | 79 | 1014.9 |
| 20260831194903 | 68 | 120 | 2.0 | 7.0 | 0.00 | 0.00 | 0.00 | 79 | 1014.6 |
| 20260831194803 | 68 | 129 | 4.0 | 8.0 | 0.00 | 0.00 | 0.00 | 79 | 1014.6 |
| 20260831194703 | 68 | 127 | 2.0 | 8.0 | 0.00 | 0.00 | 0.00 | 79 | 1014.6 |
| 20260831194603 | 68 | 136 | 2.0 | 8.0 | 0.00 | 0.00 | 0.00 | 79 | 1014.6 |
| 20260831194503 | 68 | 90 | 2.0 | 8.0 | 0.00 | 0.00 | 0.00 | 79 | 1014.8 |
| 20260831194403 | 68 | 96 | 1.0 | 8.0 | 0.00 | 0.00 | 0.00 | 79 | 1014.6 |
| 20260831194318 | 68 | 68 | 4.0 | 8.0 | 0.00 | 0.00 | 0.00 | 79 | 1014.6 |
| 20260831194303 | 68 | 44 | 2.0 | 4.0 | 0.00 | 0.00 | 0.00 | 79 | 1014.7 |
| 20260831194218 | 68 | 91 | 2.0 | 4.0 | 0.00 | 0.00 | 0.00 | 79 | 1014.7 |
| 20260831194203 | 68 | 102 | 2.0 | 4.0 | 0.00 | 0.00 | 0.00 | 79 | 1014.7 |
| 20260831193903 | 68 | 107 | 1.0 | 4.0 | 0.00 | 0.00 | 0.00 | 80 | 1014.7 |
| 20260831193803 | 68 | 108 | 0.0 | 2.0 | 0.00 | 0.00 | 0.00 | 80 | 1014.6 |
| 20260831193703 | 68 | 100 | 0.0 | 4.0 | 0.00 | 0.00 | 0.00 | 80 | 1014.6 |
| 20260831193603 | 68 | 98 | 0.0 | 4.0 | 0.00 | 0.00 | 0.00 | 80 | 1014.6 |
| 20260831193503 | 68 | 104 | 1.0 | 4.0 | 0.00 | 0.00 | 0.00 | 80 | 1014.6 |
| 20260831193403 | 67 | 118 | 0.0 | 4.0 | 0.00 | 0.00 | 0.00 | 80 | 1014.6 |
| 20260831193303 | 68 | 118 | 1.0 | 4.0 | 0.00 | 0.00 | 0.00 | 80 | 1014.6 |
| 20260831193218 | 67 | 119 | 2.0 | 4.0 | 0.00 | 0.00 | 0.00 | 80 | 1014.6 |
| 20260831193203 | 67 | 118 | 2.0 | 4.0 | 0.00 | 0.00 | 0.00 | 80 | 1014.6 |
| 20260831193103 | 68 | 163 | 1.0 | 4.0 | 0.00 | 0.00 | 0.00 | 80 | 1014.4 |
| 20260831192918 | 67 | 119 | 3.0 | 4.0 | 0.00 | 0.00 | 0.00 | 80 | 1014.8 |
| 20260831192903 | 67 | 114 | 3.0 | 4.0 | 0.00 | 0.00 | 0.00 | 80 | 1014.8 |
| 20260831192803 | 68 | 111 | 1.0 | 4.0 | 0.00 | 0.00 | 0.00 | 80 | 1014.4 |
| 20260831192618 | 67 | 87 | 3.0 | 4.0 | 0.00 | 0.00 | 0.00 | 80 | 1014.6 |
| 20260831192603 | 67 | 85 | 3.0 | 4.0 | 0.00 | 0.00 | 0.00 | 80 | 1014.6 |
| 20260831192503 | 67 | 86 | 2.0 | 4.0 | 0.00 | 0.00 | 0.00 | 80 | 1014.5 |
| 20260831192305 | 67 | 86 | 2.0 | 4.0 | 0.00 | 0.00 | 0.00 | 80 | 1014.6 |
| 20260831192203 | 67 | 92 | 1.0 | 4.0 | 0.00 | 0.00 | 0.00 | 80 | 1014.4 |
| 20260831192103 | 67 | 87 | 1.0 | 4.0 | 0.00 | 0.00 | 0.00 | 80 | 1014.5 |
| 20260831192017 | 67 | 84 | 2.0 | 4.0 | 0.00 | 0.00 | 0.00 | 80 | 1014.4 |
| 20260831192003 | 67 | 81 | 2.0 | 4.0 | 0.00 | 0.00 | 0.00 | 80 | 1014.4 |
| 20260831191903 | 68 | 81 | 1.0 | 4.0 | 0.00 | 0.00 | 0.00 | 80 | 1014.5 |
| 20260831191703 | 67 | 78 | 2.0 | 4.0 | 0.00 | 0.00 | 0.00 | 80 | 1014.5 |
| 20260831191603 | 67 | 87 | 2.0 | 4.0 | 0.00 | 0.00 | 0.00 | 80 | 1014.6 |
| 20260831191516 | 68 | 98 | 2.0 | 4.0 | 0.00 | 0.00 | 0.00 | 80 | 1014.5 |
| 20260831191503 | 68 | 101 | 1.0 | 2.0 | 0.00 | 0.00 | 0.00 | 80 | 1014.5 |
| 20260831191403 | 68 | 101 | 1.0 | 4.0 | 0.00 | 0.00 | 0.00 | 80 | 1014.4 |
| 20260831191203 | 67 | 99 | 1.0 | 4.0 | 0.00 | 0.00 | 0.00 | 80 | 1014.5 |
| 20260831191103 | 68 | 82 | 1.0 | 4.0 | 0.00 | 0.00 | 0.00 | 81 | 1014.6 |
| 20260831191003 | 67 | 75 | 2.0 | 4.0 | 0.00 | 0.00 | 0.00 | 81 | 1014.6 |
| 20260831190903 | 67 | 71 | 2.0 | 4.0 | 0.00 | 0.00 | 0.00 | 81 | 1014.4 |
| 20260831190803 | 67 | 65 | 2.0 | 4.0 | 0.00 | 0.00 | 0.00 | 81 | 1014.5 |
| 20260831190703 | 67 | 52 | 3.0 | 4.0 | 0.00 | 0.00 | 0.00 | 81 | 1014.3 |
| 20260831190603 | 67 | 47 | 2.0 | 4.0 | 0.00 | 0.00 | 0.00 | 81 | 1014.2 |
| 20260831190503 | 67 | 43 | 2.0 | 4.0 | 0.00 | 0.00 | 0.00 | 81 | 1014.2 |
| 20260831190403 | 67 | 41 | 2.0 | 4.0 | 0.00 | 0.00 | 0.00 | 81 | 1014.5 |
| 20260831190303 | 67 | 38 | 2.0 | 4.0 | 0.00 | 0.00 | 0.00 | 80 | 1014.4 |
| 20260831190203 | 68 | 48 | 2.0 | 4.0 | 0.00 | 0.00 | 0.00 | 80 | 1014.2 |
| 20260831190003 | 68 | 56 | 2.0 | 6.0 | 0.00 | 0.00 | 0.00 | 80 | 1014.3 |
| 20260831185903 | 68 | 39 | 0.0 | 6.0 | 0.00 | 0.00 | 0.00 | 81 | 1014.3 |
| 20260831185803 | 68 | 24 | 2.0 | 6.0 | 0.00 | 0.00 | 0.00 | 81 | 1014.1 |
| 20260831185703 | 67 | 25 | 2.0 | 6.0 | 0.00 | 0.00 | 0.00 | 81 | 1014.3 |
| 20260831185603 | 67 | 28 | 2.0 | 6.0 | 0.00 | 0.00 | 0.00 | 81 | 1014.4 |
| 20260831185503 | 67 | 39 | 3.0 | 6.0 | 0.00 | 0.00 | 0.00 | 80 | 1014.3 |
| 20260831185403 | 67 | 45 | 3.0 | 6.0 | 0.00 | 0.00 | 0.00 | 80 | 1014.7 |
| 20260831185306 | 68 | 57 | 4.0 | 6.0 | 0.00 | 0.00 | 0.00 | 80 | 1014.4 |
| 20260831185203 | 68 | 72 | 2.0 | 6.0 | 0.00 | 0.00 | 0.00 | 80 | 1014.3 |
| 20260831185103 | 68 | 69 | 2.0 | 6.0 | 0.00 | 0.00 | 0.00 | 81 | 1014.5 |
| 20260831185003 | 68 | 69 | 0.0 | 6.0 | 0.00 | 0.00 | 0.00 | 81 | 1014.5 |
| 20260831184903 | 68 | 84 | 1.0 | 6.0 | 0.00 | 0.00 | 0.00 | 81 | 1014.4 |
| 20260831184803 | 68 | 87 | 1.0 | 6.0 | 0.00 | 0.00 | 0.00 | 81 | 1014.4 |
| 20260831184703 | 67 | 88 | 3.0 | 6.0 | 0.00 | 0.00 | 0.00 | 81 | 1014.3 |
| 20260831184613 | 68 | 93 | 0.0 | 6.0 | 0.00 | 0.00 | 0.00 | 81 | 1014.3 |
| 20260831184503 | 67 | 89 | 2.0 | 6.0 | 0.00 | 0.00 | 0.00 | 81 | 1014.4 |
| 20260831184403 | 67 | 74 | 3.0 | 6.0 | 0.00 | 0.00 | 0.00 | 81 | 1014.3 |
| 20260831184303 | 67 | 74 | 2.0 | 6.0 | 0.00 | 0.00 | 0.00 | 81 | 1014.4 |
| 20260831184203 | 67 | 61 | 2.0 | 6.0 | 0.00 | 0.00 | 0.00 | 81 | 1014.3 |
| 20260831184103 | 67 | 40 | 2.0 | 6.0 | 0.00 | 0.00 | 0.00 | 81 | 1014.4 |
| 20260831184003 | 67 | 48 | 2.0 | 4.0 | 0.00 | 0.00 | 0.00 | 81 | 1014.4 |
| 20260831183903 | 67 | 49 | 2.0 | 4.0 | 0.00 | 0.00 | 0.00 | 81 | 1014.2 |
| 20260831183803 | 67 | 38 | 3.0 | 4.0 | 0.00 | 0.00 | 0.00 | 81 | 1014.2 |
| 20260831183703 | 67 | 44 | 2.0 | 4.0 | 0.00 | 0.00 | 0.00 | 81 | 1014.2 |
| 20260831183603 | 67 | 54 | 3.0 | 4.0 | 0.00 | 0.00 | 0.00 | 81 | 1014.3 |
| 20260831183503 | 67 | 63 | 2.0 | 4.0 | 0.00 | 0.00 | 0.00 | 81 | 1014.5 |
| 20260831183403 | 67 | 77 | 1.0 | 4.0 | 0.00 | 0.00 | 0.00 | 81 | 1014.5 |
| 20260831183303 | 67 | 83 | 3.0 | 4.0 | 0.00 | 0.00 | 0.00 | 81 | 1014.4 |
| 20260831183203 | 67 | 81 | 2.0 | 6.0 | 0.00 | 0.00 | 0.00 | 81 | 1014.6 |
| 20260831183103 | 67 | 79 | 2.0 | 6.0 | 0.00 | 0.00 | 0.00 | 81 | 1014.4 |
| 20260831183003 | 67 | 80 | 2.0 | 6.0 | 0.00 | 0.00 | 0.00 | 82 | 1014.4 |
| 20260831182903 | 67 | 79 | 2.0 | 6.0 | 0.00 | 0.00 | 0.00 | 81 | 1014.5 |
| 20260831182803 | 67 | 79 | 2.0 | 6.0 | 0.00 | 0.00 | 0.00 | 82 | 1014.5 |
| 20260831182703 | 67 | 77 | 4.0 | 6.0 | 0.00 | 0.00 | 0.00 | 81 | 1014.3 |
| 20260831182603 | 67 | 74 | 4.0 | 6.0 | 0.00 | 0.00 | 0.00 | 81 | 1014.5 |
| 20260831182503 | 67 | 76 | 3.0 | 4.0 | 0.00 | 0.00 | 0.00 | 81 | 1014.4 |
| 20260831182403 | 67 | 77 | 2.0 | 4.0 | 0.00 | 0.00 | 0.00 | 81 | 1014.3 |
| 20260831182317 | 67 | 60 | 2.0 | 7.0 | 0.00 | 0.00 | 0.00 | 81 | 1014.3 |
| 20260831182305 | 67 | 60 | 2.0 | 7.0 | 0.00 | 0.00 | 0.00 | 81 | 1014.6 |
| 20260831182218 | 67 | 66 | 3.0 | 7.0 | 0.00 | 0.00 | 0.00 | 81 | 1014.5 |
| 20260831182203 | 67 | 68 | 3.0 | 7.0 | 0.00 | 0.00 | 0.00 | 81 | 1014.5 |
| 20260831181918 | 67 | 71 | 3.0 | 7.0 | 0.00 | 0.00 | 0.00 | 81 | 1014.6 |
| 20260831181910 | 67 | 70 | 3.0 | 7.0 | 0.00 | 0.00 | 0.00 | 81 | 1014.4 |
| 20260831181803 | 67 | 82 | 2.0 | 6.0 | 0.00 | 0.00 | 0.00 | 81 | 1014.3 |
| 20260831181617 | 67 | 79 | 2.0 | 6.0 | 0.00 | 0.00 | 0.00 | 82 | 1014.5 |
| 20260831181603 | 67 | 78 | 2.0 | 6.0 | 0.00 | 0.00 | 0.00 | 82 | 1014.5 |
| 20260831181503 | 67 | 78 | 3.0 | 6.0 | 0.00 | 0.00 | 0.00 | 81 | 1014.5 |
| 20260831181303 | 67 | 76 | 2.0 | 6.0 | 0.00 | 0.00 | 0.00 | 81 | 1014.5 |
| 20260831181203 | 67 | 74 | 2.0 | 6.0 | 0.00 | 0.00 | 0.00 | 81 | 1014.6 |
| 20260831181103 | 67 | 77 | 3.0 | 6.0 | 0.00 | 0.00 | 0.00 | 80 | 1014.4 |
| 20260831181003 | 67 | 76 | 4.0 | 6.0 | 0.00 | 0.00 | 0.00 | 80 | 1014.5 |
| 20260831180903 | 67 | 82 | 4.0 | 6.0 | 0.00 | 0.00 | 0.00 | 80 | 1014.5 |
| 20260831180803 | 68 | 72 | 3.0 | 6.0 | 0.00 | 0.00 | 0.00 | 79 | 1014.5 |
| 20260831180703 | 68 | 60 | 3.0 | 4.0 | 0.00 | 0.00 | 0.00 | 79 | 1014.5 |
| 20260831180603 | 68 | 52 | 2.0 | 4.0 | 0.00 | 0.00 | 0.00 | 79 | 1014.5 |
| 20260831180503 | 68 | 54 | 1.0 | 4.0 | 0.00 | 0.00 | 0.00 | 79 | 1014.2 |
| 20260831180403 | 68 | 43 | 1.0 | 4.0 | 0.00 | 0.00 | 0.00 | 79 | 1014.5 |
| 20260831180303 | 68 | 51 | 2.0 | 4.0 | 0.00 | 0.00 | 0.00 | 78 | 1014.4 |
| 20260831180203 | 68 | 87 | 2.0 | 2.0 | 0.00 | 0.00 | 0.00 | 79 | 1014.7 |
| 20260831180005 | 68 | 95 | 1.0 | 4.0 | 0.00 | 0.00 | 0.00 | 79 | 1014.6 |
| 20260831175903 | 68 | 99 | 0.0 | 4.0 | 0.00 | 0.00 | 0.00 | 79 | 1014.5 |
| 20260831175803 | 68 | 98 | 1.0 | 4.0 | 0.00 | 0.00 | 0.00 | 79 | 1014.6 |
| 20260831175703 | 68 | 84 | 0.0 | 4.0 | 0.00 | 0.00 | 0.00 | 80 | 1014.5 |
| 20260831175605 | 68 | 74 | 1.0 | 4.0 | 0.00 | 0.00 | 0.00 | 80 | 1014.4 |
| 20260831175503 | 67 | 82 | 4.0 | 7.0 | 0.00 | 0.00 | 0.00 | 79 | 1014.6 |
| 20260831175423 | 68 | 84 | 2.0 | 7.0 | 0.00 | 0.00 | 0.00 | 79 | 1014.3 |
| 20260831175306 | 68 | 70 | 2.0 | 7.0 | 0.00 | 0.00 | 0.00 | 79 | 1014.3 |
| 20260831175203 | 67 | 74 | 2.0 | 7.0 | 0.00 | 0.00 | 0.00 | 79 | 1014.5 |
| 20260831175103 | 67 | 70 | 4.0 | 7.0 | 0.00 | 0.00 | 0.00 | 79 | 1014.3 |
| 20260831175017 | 68 | 56 | 2.0 | 6.0 | 0.00 | 0.00 | 0.00 | 79 | 1014.4 |
| 20260831175003 | 68 | 54 | 2.0 | 6.0 | 0.00 | 0.00 | 0.00 | 79 | 1014.4 |
| 20260831174903 | 67 | 45 | 2.0 | 6.0 | 0.00 | 0.00 | 0.00 | 79 | 1014.5 |
| 20260831174717 | 68 | 57 | 2.0 | 6.0 | 0.00 | 0.00 | 0.00 | 79 | 1014.4 |
| 20260831174703 | 68 | 60 | 2.0 | 6.0 | 0.00 | 0.00 | 0.00 | 79 | 1014.5 |
| 20260831174603 | 68 | 78 | 3.0 | 6.0 | 0.00 | 0.00 | 0.00 | 79 | 1014.3 |
| 20260831174403 | 68 | 81 | 0.0 | 4.0 | 0.00 | 0.00 | 0.00 | 79 | 1014.4 |
| 20260831174303 | 68 | 68 | 1.0 | 4.0 | 0.00 | 0.00 | 0.00 | 79 | 1014.3 |
| 20260831174203 | 67 | 45 | 2.0 | 4.0 | 0.00 | 0.00 | 0.00 | 79 | 1014.4 |
| 20260831174103 | 67 | 21 | 3.0 | 4.0 | 0.00 | 0.00 | 0.00 | 79 | 1014.5 |
| 20260831174017 | 67 | 11 | 3.0 | 4.0 | 0.00 | 0.00 | 0.00 | 79 | 1014.6 |
| 20260831174003 | 67 | 6 | 3.0 | 4.0 | 0.00 | 0.00 | 0.00 | 79 | 1014.6 |
| 20260831173903 | 67 | 354 | 2.0 | 4.0 | 0.00 | 0.00 | 0.00 | 79 | 1014.2 |
| 20260831173703 | 67 | 29 | 2.0 | 6.0 | 0.00 | 0.00 | 0.00 | 79 | 1014.6 |
| 20260831173603 | 67 | 24 | 2.0 | 6.0 | 0.00 | 0.00 | 0.00 | 79 | 1014.3 |
| 20260831173503 | 68 | 37 | 3.0 | 6.0 | 0.00 | 0.00 | 0.00 | 78 | 1014.3 |
| 20260831173423 | 68 | 44 | 4.0 | 6.0 | 0.00 | 0.00 | 0.00 | 78 | 1014.4 |
| 20260831173403 | 68 | 43 | 4.0 | 6.0 | 0.00 | 0.00 | 0.00 | 78 | 1014.4 |
| 20260831173303 | 68 | 14 | 3.0 | 6.0 | 0.00 | 0.00 | 0.00 | 78 | 1014.4 |
| 20260831173217 | 68 | 13 | 2.0 | 4.0 | 0.00 | 0.00 | 0.00 | 77 | 1014.4 |
| 20260831173103 | 69 | 48 | 3.0 | 4.0 | 0.00 | 0.00 | 0.00 | 76 | 1014.4 |
| 20260831172903 | 69 | 360 | 0.0 | 4.0 | 0.00 | 0.00 | 0.00 | 76 | 1014.3 |
| 20260831172803 | 69 | 24 | 2.0 | 4.0 | 0.00 | 0.00 | 0.00 | 75 | 1014.5 |
| 20260831172703 | 69 | 30 | 2.0 | 4.0 | 0.00 | 0.00 | 0.00 | 76 | 1014.4 |
| 20260831172603 | 69 | 38 | 2.0 | 4.0 | 0.00 | 0.00 | 0.00 | 76 | 1014.4 |
| 20260831172503 | 69 | 74 | 3.0 | 4.0 | 0.00 | 0.00 | 0.00 | 74 | 1014.4 |
| 20260831172418 | 70 | 96 | 3.0 | 4.0 | 0.00 | 0.00 | 0.00 | 74 | 1014.5 |
| 20260831172403 | 70 | 108 | 3.0 | 4.0 | 0.00 | 0.00 | 0.00 | 74 | 1014.5 |
| 20260831172306 | 72 | 134 | 2.0 | 4.0 | 0.00 | 0.00 | 0.00 | 73 | 1014.5 |
| 20260831172118 | 72 | 178 | 2.0 | 4.0 | 0.00 | 0.00 | 0.00 | 73 | 1014.7 |
| 20260831172103 | 72 | 190 | 2.0 | 4.0 | 0.00 | 0.00 | 0.00 | 73 | 1014.7 |
| 20260831172003 | 72 | 198 | 1.0 | 4.0 | 0.00 | 0.00 | 0.00 | 74 | 1014.5 |
| 20260831171917 | 71 | 176 | 2.0 | 4.0 | 0.00 | 0.00 | 0.00 | 74 | 1014.7 |
| 20260831171803 | 71 | 111 | 0.0 | 4.0 | 0.00 | 0.00 | 0.00 | 76 | 1014.6 |
| 20260831171617 | 69 | 99 | 1.0 | 4.0 | 0.00 | 0.00 | 0.00 | 77 | 1014.5 |
| 20260831171603 | 69 | 92 | 1.0 | 4.0 | 0.00 | 0.00 | 0.00 | 77 | 1014.5 |
| 20260831171503 | 69 | 66 | 1.0 | 4.0 | 0.00 | 0.00 | 0.00 | 77 | 1014.7 |
| 20260831171303 | 69 | 16 | 2.0 | 6.0 | 0.00 | 0.00 | 0.00 | 77 | 1014.6 |
| 20260831171203 | 69 | 3 | 2.0 | 6.0 | 0.00 | 0.00 | 0.00 | 77 | 1014.6 |
| 20260831171103 | 68 | 349 | 2.0 | 7.0 | 0.00 | 0.00 | 0.00 | 77 | 1014.3 |
| 20260831171003 | 68 | 348 | 2.0 | 7.0 | 0.00 | 0.00 | 0.00 | 78 | 1014.2 |
| 20260831170917 | 68 | 347 | 4.0 | 8.0 | 0.00 | 0.00 | 0.00 | 78 | 1014.6 |
| 20260831170903 | 68 | 348 | 4.0 | 8.0 | 0.00 | 0.00 | 0.00 | 78 | 1014.6 |
| 20260831170803 | 68 | 356 | 4.0 | 8.0 | 0.00 | 0.00 | 0.00 | 78 | 1014.4 |
| 20260831170603 | 68 | 16 | 3.0 | 8.0 | 0.00 | 0.00 | 0.00 | 78 | 1014.2 |
| 20260831170518 | 68 | 35 | 3.0 | 8.0 | 0.00 | 0.00 | 0.00 | 78 | 1014.6 |
| 20260831170503 | 68 | 40 | 3.0 | 8.0 | 0.00 | 0.00 | 0.00 | 78 | 1014.6 |
| 20260831170418 | 68 | 54 | 5.0 | 8.0 | 0.00 | 0.00 | 0.00 | 78 | 1014.5 |
| 20260831170403 | 68 | 58 | 5.0 | 8.0 | 0.00 | 0.00 | 0.00 | 78 | 1014.5 |
| 20260831170103 | 67 | 67 | 3.0 | 6.0 | 0.00 | 0.00 | 0.00 | 77 | 1014.7 |
| 20260831170003 | 68 | 21 | 3.0 | 6.0 | 0.00 | 0.00 | 0.00 | 77 | 1014.5 |
| 20260831165808 | 69 | 255 | 0.0 | 2.0 | 0.00 | 0.00 | 0.00 | 78 | 1014.8 |
| 20260831165703 | 68 | 248 | 1.0 | 4.0 | 0.00 | 0.00 | 0.00 | 77 | 1014.7 |
| 20260831165603 | 68 | 247 | 1.0 | 4.0 | 0.00 | 0.00 | 0.00 | 78 | 1014.6 |
| 20260831165503 | 68 | 238 | 0.0 | 4.0 | 0.00 | 0.00 | 0.00 | 78 | 1014.6 |
| 20260831165418 | 68 | 229 | 2.0 | 4.0 | 0.00 | 0.00 | 0.00 | 78 | 1014.6 |
| 20260831165305 | 68 | 222 | 2.0 | 4.0 | 0.00 | 0.00 | 0.00 | 78 | 1014.5 |
| 20260831165217 | 68 | 221 | 2.0 | 4.0 | 0.00 | 0.00 | 0.00 | 78 | 1014.5 |
| 20260831165103 | 68 | 217 | 2.0 | 4.0 | 0.00 | 0.00 | 0.00 | 76 | 1014.5 |
| 20260831164903 | 70 | 152 | 2.0 | 2.0 | 0.00 | 0.00 | 0.00 | 75 | 1014.8 |
| 20260831164803 | 69 | 111 | 1.0 | 2.0 | 0.00 | 0.00 | 0.00 | 76 | 1014.5 |
| 20260831164718 | 69 | 98 | 1.0 | 2.0 | 0.00 | 0.00 | 0.00 | 76 | 1014.7 |
| 20260831164703 | 69 | 98 | 0.0 | 2.0 | 0.00 | 0.00 | 0.00 | 76 | 1014.6 |
| 20260831164609 | 69 | 97 | 1.0 | 2.0 | 0.00 | 0.00 | 0.00 | 76 | 1014.6 |
| 20260831164403 | 69 | 41 | 1.0 | 2.0 | 0.00 | 0.00 | 0.00 | 77 | 1014.6 |
| 20260831164303 | 69 | 356 | 0.0 | 2.0 | 0.00 | 0.00 | 0.00 | 78 | 1014.7 |
| 20260831164203 | 68 | 341 | 0.0 | 2.0 | 0.00 | 0.00 | 0.00 | 79 | 1014.5 |
| 20260831164103 | 68 | 338 | 0.0 | 2.0 | 0.00 | 0.00 | 0.00 | 79 | 1015.0 |
| 20260831164003 | 67 | 348 | 0.0 | 2.0 | 0.00 | 0.00 | 0.00 | 80 | 1014.7 |
| 20260831163917 | 67 | 2 | 1.0 | 2.0 | 0.00 | 0.00 | 0.00 | 79 | 1014.7 |
| 20260831163903 | 67 | 11 | 2.0 | 4.0 | 0.00 | 0.00 | 0.00 | 79 | 1014.7 |
| 20260831163803 | 67 | 43 | 1.0 | 4.0 | 0.00 | 0.00 | 0.00 | 79 | 1014.7 |
| 20260831163603 | 67 | 71 | 2.0 | 4.0 | 0.00 | 0.00 | 0.00 | 79 | 1014.8 |
| 20260831163503 | 67 | 72 | 2.0 | 4.0 | 0.00 | 0.00 | 0.00 | 79 | 1014.7 |
| 20260831163404 | 67 | 72 | 2.0 | 4.0 | 0.00 | 0.00 | 0.00 | 79 | 1014.6 |
| 20260831163303 | 67 | 75 | 2.0 | 4.0 | 0.00 | 0.00 | 0.00 | 79 | 1014.8 |
| 20260831163203 | 67 | 74 | 2.0 | 4.0 | 0.00 | 0.00 | 0.00 | 78 | 1014.7 |
| 20260831163103 | 67 | 82 | 2.0 | 4.0 | 0.00 | 0.00 | 0.00 | 77 | 1014.6 |
| 20260831163018 | 68 | 101 | 3.0 | 4.0 | 0.00 | 0.00 | 0.00 | 77 | 1014.8 |
| 20260831163003 | 68 | 105 | 3.0 | 4.0 | 0.00 | 0.00 | 0.00 | 77 | 1014.8 |
| 20260831162903 | 68 | 93 | 1.0 | 6.0 | 0.00 | 0.00 | 0.00 | 77 | 1014.7 |
| 20260831162718 | 69 | 89 | 0.0 | 6.0 | 0.00 | 0.00 | 0.00 | 77 | 1015.0 |
| 20260831162703 | 68 | 90 | 0.0 | 6.0 | 0.00 | 0.00 | 0.00 | 77 | 1014.8 |
| 20260831162603 | 68 | 86 | 1.0 | 6.0 | 0.00 | 0.00 | 0.00 | 77 | 1014.7 |
| 20260831162517 | 68 | 75 | 3.0 | 6.0 | 0.00 | 0.00 | 0.00 | 77 | 1014.5 |
| 20260831162403 | 68 | 334 | 4.0 | 6.0 | 0.00 | 0.00 | 0.00 | 77 | 1015.0 |
| 20260831162319 | 69 | 278 | 0.0 | 2.0 | 0.00 | 0.00 | 0.00 | 77 | 1014.9 |
| 20260831162203 | 68 | 286 | 0.0 | 2.0 | 0.00 | 0.00 | 0.00 | 78 | 1014.7 |
| 20260831162003 | 67 | 283 | 1.0 | 2.0 | 0.00 | 0.00 | 0.00 | 79 | 1014.9 |
| 20260831161903 | 67 | 274 | 1.0 | 2.0 | 0.00 | 0.00 | 0.00 | 79 | 1015.0 |
| 20260831161803 | 67 | 264 | 1.0 | 2.0 | 0.00 | 0.00 | 0.00 | 79 | 1014.7 |
| 20260831161703 | 67 | 258 | 2.0 | 2.0 | 0.00 | 0.00 | 0.00 | 79 | 1014.7 |
| 20260831161603 | 67 | 254 | 2.0 | 2.0 | 0.00 | 0.00 | 0.00 | 79 | 1014.7 |
| 20260831161503 | 67 | 261 | 1.0 | 2.0 | 0.00 | 0.00 | 0.00 | 79 | 1014.9 |
| 20260831161403 | 67 | 278 | 2.0 | 2.0 | 0.00 | 0.00 | 0.00 | 78 | 1014.8 |
| 20260831161316 | 67 | 290 | 2.0 | 2.0 | 0.00 | 0.00 | 0.00 | 78 | 1014.8 |
| 20260831161303 | 67 | 295 | 2.0 | 2.0 | 0.00 | 0.00 | 0.00 | 78 | 1014.8 |
| 20260831161203 | 68 | 300 | 0.0 | 2.0 | 0.00 | 0.00 | 0.00 | 78 | 1014.8 |
| 20260831161018 | 67 | 270 | 0.0 | 2.0 | 0.00 | 0.00 | 0.00 | 80 | 1014.9 |
| 20260831161003 | 67 | 269 | 0.0 | 2.0 | 0.00 | 0.00 | 0.00 | 80 | 1014.9 |
| 20260831160917 | 66 | 264 | 0.0 | 2.0 | 0.00 | 0.00 | 0.00 | 80 | 1015.0 |
| 20260831160903 | 66 | 261 | 0.0 | 2.0 | 0.00 | 0.00 | 0.00 | 80 | 1015.0 |
| 20260831160603 | 66 | 247 | 0.0 | 2.0 | 0.00 | 0.00 | 0.00 | 80 | 1014.9 |
| 20260831160503 | 66 | 274 | 0.0 | 2.0 | 0.00 | 0.00 | 0.00 | 81 | 1014.7 |
| 20260831160403 | 66 | 294 | 0.0 | 2.0 | 0.00 | 0.00 | 0.00 | 81 | 1014.9 |
| 20260831160303 | 65 | 54 | 2.0 | 2.0 | 0.00 | 0.00 | 0.00 | 81 | 1014.7 |
| 20260831160203 | 65 | 73 | 1.0 | 2.0 | 0.00 | 0.00 | 0.00 | 81 | 1014.7 |
| 20260831160103 | 65 | 66 | 0.0 | 2.0 | 0.00 | 0.00 | 0.00 | 81 | 1014.9 |
| 20260831160003 | 65 | 66 | 1.0 | 2.0 | 0.00 | 0.00 | 0.00 | 81 | 1014.9 |
| 20260831155903 | 65 | 78 | 1.0 | 4.0 | 0.00 | 0.00 | 0.00 | 81 | 1015.0 |
| 20260831155803 | 66 | 71 | 0.0 | 4.0 | 0.00 | 0.00 | 0.00 | 81 | 1015.0 |
| 20260831155703 | 65 | 82 | 1.0 | 4.0 | 0.00 | 0.00 | 0.00 | 81 | 1015.1 |
| 20260831155603 | 65 | 88 | 2.0 | 4.0 | 0.00 | 0.00 | 0.00 | 82 | 1014.8 |
| 20260831155503 | 65 | 101 | 1.0 | 4.0 | 0.00 | 0.00 | 0.00 | 82 | 1015.0 |
| 20260831155403 | 65 | 89 | 2.0 | 4.0 | 0.00 | 0.00 | 0.00 | 82 | 1014.9 |
| 20260831155306 | 65 | 83 | 0.0 | 4.0 | 0.00 | 0.00 | 0.00 | 82 | 1014.9 |
| 20260831155203 | 65 | 80 | 1.0 | 4.0 | 0.00 | 0.00 | 0.00 | 82 | 1015.0 |
| 20260831155103 | 65 | 79 | 1.0 | 4.0 | 0.00 | 0.00 | 0.00 | 82 | 1014.9 |
| 20260831155018 | 64 | 78 | 2.0 | 6.0 | 0.00 | 0.00 | 0.00 | 81 | 1014.9 |
| 20260831155003 | 64 | 79 | 2.0 | 6.0 | 0.00 | 0.00 | 0.00 | 81 | 1014.9 |
| 20260831154917 | 65 | 82 | 2.0 | 6.0 | 0.00 | 0.00 | 0.00 | 82 | 1014.8 |
| 20260831154903 | 65 | 84 | 2.0 | 6.0 | 0.00 | 0.00 | 0.00 | 82 | 1014.8 |
| 20260831154817 | 65 | 88 | 2.0 | 6.0 | 0.00 | 0.00 | 0.00 | 82 | 1014.6 |
| 20260831154503 | 64 | 84 | 3.0 | 6.0 | 0.00 | 0.00 | 0.00 | 81 | 1015.0 |
| 20260831154403 | 65 | 83 | 3.0 | 6.0 | 0.00 | 0.00 | 0.00 | 81 | 1014.8 |
| 20260831154318 | 65 | 73 | 2.0 | 4.0 | 0.00 | 0.00 | 0.00 | 80 | 1014.9 |
| 20260831154303 | 65 | 70 | 1.0 | 2.0 | 0.00 | 0.00 | 0.00 | 80 | 1014.9 |
| 20260831154203 | 65 | 92 | 1.0 | 4.0 | 0.00 | 0.00 | 0.00 | 80 | 1014.7 |
| 20260831154003 | 66 | 95 | 1.0 | 4.0 | 0.00 | 0.00 | 0.00 | 81 | 1014.7 |
| 20260831153903 | 66 | 90 | 0.0 | 4.0 | 0.00 | 0.00 | 0.00 | 81 | 1014.8 |
| 20260831153803 | 66 | 80 | 0.0 | 4.0 | 0.00 | 0.00 | 0.00 | 82 | 1014.7 |
| 20260831153703 | 65 | 66 | 2.0 | 4.0 | 0.00 | 0.00 | 0.00 | 81 | 1014.7 |
| 20260831153603 | 65 | 56 | 0.0 | 4.0 | 0.00 | 0.00 | 0.00 | 82 | 1014.5 |
| 20260831153503 | 64 | 61 | 2.0 | 4.0 | 0.00 | 0.00 | 0.00 | 82 | 1014.6 |
| 20260831153403 | 65 | 60 | 2.0 | 4.0 | 0.00 | 0.00 | 0.00 | 82 | 1014.5 |
| 20260831153318 | 65 | 69 | 2.0 | 4.0 | 0.00 | 0.00 | 0.00 | 82 | 1014.6 |
| 20260831153303 | 65 | 76 | 2.0 | 4.0 | 0.00 | 0.00 | 0.00 | 82 | 1014.6 |
| 20260831153203 | 65 | 96 | 1.0 | 4.0 | 0.00 | 0.00 | 0.00 | 83 | 1014.5 |
| 20260831153003 | 64 | 88 | 1.0 | 9.0 | 0.00 | 0.00 | 0.00 | 84 | 1014.4 |
| 20260831152903 | 63 | 96 | 0.0 | 9.0 | 0.00 | 0.00 | 0.00 | 84 | 1014.5 |
| 20260831152803 | 63 | 88 | 2.0 | 9.0 | 0.00 | 0.00 | 0.00 | 84 | 1014.6 |
| 20260831152703 | 63 | 81 | 2.0 | 9.0 | 0.00 | 0.00 | 0.00 | 84 | 1014.4 |
| 20260831152603 | 63 | 86 | 3.0 | 9.0 | 0.00 | 0.00 | 0.00 | 84 | 1014.6 |
| 20260831152503 | 62 | 80 | 7.0 | 9.0 | 0.00 | 0.00 | 0.00 | 83 | 1014.6 |
| 20260831152403 | 63 | 80 | 4.0 | 8.0 | 0.00 | 0.00 | 0.00 | 83 | 1014.4 |
| 20260831152306 | 64 | 83 | 2.0 | 6.0 | 0.00 | 0.00 | 0.00 | 84 | 1014.5 |
| 20260831152203 | 63 | 79 | 2.0 | 6.0 | 0.00 | 0.00 | 0.00 | 84 | 1014.5 |
| 20260831152103 | 63 | 66 | 2.0 | 6.0 | 0.00 | 0.00 | 0.00 | 84 | 1014.6 |
| 20260831152003 | 63 | 58 | 2.0 | 9.0 | 0.00 | 0.00 | 0.00 | 84 | 1014.6 |
| 20260831151903 | 63 | 48 | 3.0 | 9.0 | 0.00 | 0.00 | 0.00 | 84 | 1014.4 |
| 20260831151803 | 63 | 36 | 3.0 | 9.0 | 0.00 | 0.00 | 0.00 | 84 | 1014.5 |
| 20260831151703 | 63 | 39 | 2.0 | 9.0 | 0.00 | 0.00 | 0.00 | 84 | 1014.6 |
| 20260831151603 | 62 | 41 | 2.0 | 9.0 | 0.00 | 0.00 | 0.00 | 84 | 1014.6 |
| 20260831151503 | 63 | 47 | 2.0 | 7.0 | 0.00 | 0.00 | 0.00 | 84 | 1014.5 |
| 20260831151403 | 63 | 55 | 3.0 | 7.0 | 0.00 | 0.00 | 0.00 | 84 | 1014.7 |
| 20260831151303 | 63 | 72 | 3.0 | 7.0 | 0.00 | 0.00 | 0.00 | 84 | 1014.6 |
| 20260831151203 | 63 | 82 | 3.0 | 7.0 | 0.00 | 0.00 | 0.00 | 83 | 1014.5 |
| 20260831151103 | 63 | 101 | 2.0 | 7.0 | 0.00 | 0.00 | 0.00 | 83 | 1014.5 |
| 20260831151018 | 63 | 104 | 2.0 | 7.0 | 0.00 | 0.00 | 0.00 | 83 | 1014.5 |
| 20260831151003 | 63 | 101 | 2.0 | 7.0 | 0.00 | 0.00 | 0.00 | 83 | 1014.5 |
| 20260831150903 | 63 | 98 | 2.0 | 7.0 | 0.00 | 0.00 | 0.00 | 83 | 1014.5 |
| 20260831150703 | 63 | 104 | 3.0 | 7.0 | 0.00 | 0.00 | 0.00 | 82 | 1014.3 |
| 20260831150603 | 63 | 102 | 3.0 | 7.0 | 0.00 | 0.00 | 0.00 | 82 | 1014.6 |
| 20260831150517 | 64 | 113 | 2.0 | 7.0 | 0.00 | 0.00 | 0.00 | 82 | 1014.6 |
| 20260831150503 | 64 | 119 | 2.0 | 7.0 | 0.00 | 0.00 | 0.00 | 82 | 1014.6 |
| 20260831150404 | 64 | 122 | 3.0 | 7.0 | 0.00 | 0.00 | 0.00 | 82 | 1014.3 |
| 20260831150203 | 64 | 133 | 2.0 | 7.0 | 0.00 | 0.00 | 0.00 | 82 | 1014.3 |
| 20260831150117 | 64 | 130 | 2.0 | 7.0 | 0.00 | 0.00 | 0.00 | 82 | 1014.5 |
| 20260831150103 | 64 | 123 | 2.0 | 7.0 | 0.00 | 0.00 | 0.00 | 82 | 1014.5 |
| 20260831150003 | 64 | 129 | 3.0 | 7.0 | 0.00 | 0.00 | 0.00 | 82 | 1014.3 |
| 20260831145803 | 64 | 143 | 2.0 | 6.0 | 0.00 | 0.00 | 0.00 | 82 | 1014.4 |
| 20260831145703 | 64 | 103 | 2.0 | 6.0 | 0.00 | 0.00 | 0.00 | 82 | 1014.5 |
| 20260831145603 | 64 | 73 | 2.0 | 4.0 | 0.00 | 0.00 | 0.00 | 82 | 1014.4 |
| 20260831145503 | 64 | 69 | 1.0 | 4.0 | 0.00 | 0.00 | 0.00 | 82 | 1014.3 |
| 20260831145403 | 64 | 78 | 3.0 | 4.0 | 0.00 | 0.00 | 0.00 | 82 | 1014.3 |
| 20260831145306 | 64 | 45 | 2.0 | 4.0 | 0.00 | 0.00 | 0.00 | 82 | 1014.3 |
| 20260831145203 | 64 | 63 | 2.0 | 4.0 | 0.00 | 0.00 | 0.00 | 83 | 1014.4 |
| 20260831145103 | 64 | 99 | 2.0 | 6.0 | 0.00 | 0.00 | 0.00 | 83 | 1014.3 |
| 20260831145003 | 64 | 113 | 2.0 | 6.0 | 0.00 | 0.00 | 0.00 | 83 | 1014.3 |
| 20260831144903 | 64 | 131 | 1.0 | 6.0 | 0.00 | 0.00 | 0.00 | 84 | 1014.3 |
| 20260831144820 | 64 | 135 | 1.0 | 6.0 | 0.00 | 0.00 | 0.00 | 84 | 1014.3 |
| 20260831144803 | 64 | 136 | 1.0 | 6.0 | 0.00 | 0.00 | 0.00 | 84 | 1014.3 |
| 20260831144703 | 63 | 159 | 3.0 | 6.0 | 0.00 | 0.00 | 0.00 | 84 | 1014.4 |
| 20260831144503 | 63 | 209 | 2.0 | 4.0 | 0.00 | 0.00 | 0.00 | 84 | 1014.4 |
| 20260831144403 | 63 | 199 | 2.0 | 4.0 | 0.00 | 0.00 | 0.00 | 84 | 1014.2 |
| 20260831144303 | 63 | 208 | 2.0 | 4.0 | 0.00 | 0.00 | 0.00 | 84 | 1014.3 |
| 20260831144203 | 63 | 212 | 2.0 | 6.0 | 0.00 | 0.00 | 0.00 | 84 | 1014.5 |
| 20260831144117 | 63 | 202 | 3.0 | 6.0 | 0.00 | 0.00 | 0.00 | 84 | 1014.3 |
| 20260831144103 | 63 | 190 | 3.0 | 6.0 | 0.00 | 0.00 | 0.00 | 84 | 1014.3 |
| 20260831144003 | 63 | 203 | 2.0 | 6.0 | 0.00 | 0.00 | 0.00 | 84 | 1014.3 |
| 20260831143803 | 63 | 166 | 2.0 | 6.0 | 0.00 | 0.00 | 0.00 | 85 | 1014.2 |
| 20260831143717 | 63 | 139 | 2.0 | 6.0 | 0.00 | 0.00 | 0.00 | 85 | 1014.2 |
| 20260831143703 | 63 | 131 | 2.0 | 6.0 | 0.00 | 0.00 | 0.00 | 85 | 1014.2 |
| 20260831143603 | 63 | 129 | 2.0 | 4.0 | 0.00 | 0.00 | 0.00 | 85 | 1014.3 |
| 20260831143403 | 62 | 102 | 2.0 | 7.0 | 0.00 | 0.00 | 0.00 | 86 | 1014.4 |
| 20260831143303 | 62 | 101 | 3.0 | 7.0 | 0.00 | 0.00 | 0.00 | 86 | 1014.3 |
| 20260831143203 | 62 | 107 | 3.0 | 7.0 | 0.00 | 0.00 | 0.00 | 86 | 1014.0 |
| 20260831143103 | 62 | 90 | 1.0 | 7.0 | 0.00 | 0.00 | 0.00 | 86 | 1013.9 |
| 20260831143003 | 62 | 78 | 4.0 | 7.0 | 0.00 | 0.00 | 0.00 | 86 | 1014.2 |
| 20260831142918 | 63 | 91 | 0.0 | 7.0 | 0.00 | 0.00 | 0.00 | 87 | 1014.2 |
| 20260831142903 | 63 | 94 | 0.0 | 7.0 | 0.00 | 0.00 | 0.00 | 87 | 1014.2 |
| 20260831142817 | 62 | 94 | 1.0 | 7.0 | 0.00 | 0.00 | 0.00 | 88 | 1014.3 |
| 20260831142803 | 62 | 92 | 1.0 | 7.0 | 0.00 | 0.00 | 0.00 | 88 | 1014.3 |
| 20260831142503 | 62 | 129 | 1.0 | 6.0 | 0.00 | 0.00 | 0.00 | 89 | 1014.1 |
| 20260831142403 | 62 | 96 | 1.0 | 7.0 | 0.00 | 0.00 | 0.00 | 89 | 1014.0 |
| 20260831142305 | 61 | 130 | 0.0 | 8.0 | 0.00 | 0.00 | 0.00 | 90 | 1014.2 |
| 20260831142203 | 61 | 129 | 2.0 | 8.0 | 0.00 | 0.00 | 0.00 | 90 | 1014.1 |
| 20260831142103 | 60 | 121 | 2.0 | 8.0 | 0.00 | 0.00 | 0.00 | 89 | 1014.2 |
| 20260831142003 | 61 | 113 | 3.0 | 8.0 | 0.00 | 0.00 | 0.00 | 90 | 1014.2 |
| 20260831141903 | 61 | 124 | 2.0 | 8.0 | 0.00 | 0.00 | 0.00 | 90 | 1014.4 |
| 20260831141817 | 61 | 102 | 0.0 | 4.0 | 0.00 | 0.00 | 0.00 | 91 | 1014.1 |
| 20260831141803 | 61 | 101 | 0.0 | 4.0 | 0.00 | 0.00 | 0.00 | 91 | 1014.1 |
| 20260831141705 | 60 | 99 | 0.0 | 4.0 | 0.00 | 0.00 | 0.00 | 91 | 1014.1 |
| 20260831141618 | 60 | 92 | 2.0 | 6.0 | 0.00 | 0.00 | 0.00 | 91 | 1014.2 |
| 20260831141503 | 60 | 86 | 2.0 | 6.0 | 0.00 | 0.00 | 0.00 | 91 | 1014.1 |
| 20260831141303 | 60 | 84 | 2.0 | 6.0 | 0.00 | 0.00 | 0.00 | 91 | 1014.2 |
| 20260831141203 | 60 | 83 | 2.0 | 6.0 | 0.00 | 0.00 | 0.00 | 92 | 1014.3 |
| 20260831141103 | 60 | 87 | 3.0 | 4.0 | 0.00 | 0.00 | 0.00 | 92 | 1014.3 |
| 20260831141003 | 60 | 91 | 1.0 | 4.0 | 0.00 | 0.00 | 0.00 | 92 | 1014.2 |
| 20260831140918 | 60 | 99 | 0.0 | 4.0 | 0.00 | 0.00 | 0.00 | 92 | 1014.2 |
| 20260831140903 | 60 | 103 | 0.0 | 4.0 | 0.00 | 0.00 | 0.00 | 92 | 1014.2 |
| 20260831140803 | 60 | 102 | 0.0 | 4.0 | 0.00 | 0.00 | 0.00 | 92 | 1014.2 |
| 20260831140603 | 59 | 139 | 2.0 | 4.0 | 0.00 | 0.00 | 0.00 | 93 | 1014.2 |
| 20260831140503 | 60 | 142 | 1.0 | 4.0 | 0.00 | 0.00 | 0.00 | 93 | 1014.3 |
| 20260831140403 | 59 | 146 | 0.0 | 4.0 | 0.00 | 0.00 | 0.00 | 93 | 1014.2 |
| 20260831140303 | 59 | 144 | 2.0 | 4.0 | 0.00 | 0.00 | 0.00 | 93 | 1014.4 |
| 20260831140218 | 59 | 144 | 1.0 | 4.0 | 0.00 | 0.00 | 0.00 | 93 | 1014.3 |
| 20260831140203 | 59 | 140 | 1.0 | 4.0 | 0.00 | 0.00 | 0.00 | 93 | 1014.3 |
| 20260831135903 | 59 | 101 | 1.0 | 7.0 | 0.00 | 0.00 | 0.00 | 94 | 1014.5 |
| 20260831135816 | 59 | 100 | 2.0 | 7.0 | 0.00 | 0.00 | 0.00 | 94 | 1014.3 |
| 20260831135803 | 59 | 98 | 2.0 | 7.0 | 0.00 | 0.00 | 0.00 | 94 | 1014.3 |
| 20260831135703 | 59 | 86 | 1.0 | 7.0 | 0.00 | 0.00 | 0.00 | 94 | 1014.4 |
| 20260831135503 | 58 | 82 | 3.0 | 7.0 | 0.00 | 0.00 | 0.00 | 94 | 1014.3 |
| 20260831135405 | 58 | 83 | 4.0 | 7.0 | 0.00 | 0.00 | 0.00 | 94 | 1014.3 |
| 20260831135306 | 58 | 67 | 2.0 | 6.0 | 0.00 | 0.00 | 0.00 | 94 | 1014.2 |
| 20260831135203 | 58 | 92 | 2.0 | 7.0 | 0.00 | 0.00 | 0.00 | 94 | 1014.4 |
| 20260831135103 | 59 | 88 | 2.0 | 7.0 | 0.00 | 0.00 | 0.00 | 94 | 1014.4 |
| 20260831135003 | 59 | 102 | 1.0 | 8.0 | 0.00 | 0.00 | 0.00 | 95 | 1014.2 |
| 20260831134903 | 59 | 107 | 0.0 | 8.0 | 0.00 | 0.00 | 0.00 | 95 | 1014.4 |
| 20260831134803 | 58 | 109 | 1.0 | 8.0 | 0.00 | 0.00 | 0.00 | 95 | 1014.4 |
| 20260831134703 | 58 | 97 | 3.0 | 8.0 | 0.00 | 0.00 | 0.00 | 95 | 1014.3 |
| 20260831134605 | 58 | 98 | 2.0 | 8.0 | 0.00 | 0.00 | 0.00 | 95 | 1014.3 |
| 20260831134503 | 58 | 93 | 5.0 | 8.0 | 0.00 | 0.00 | 0.00 | 95 | 1014.1 |
| 20260831134403 | 58 | 95 | 4.0 | 8.0 | 0.00 | 0.00 | 0.00 | 95 | 1014.2 |
| 20260831134318 | 58 | 93 | 2.0 | 8.0 | 0.00 | 0.00 | 0.00 | 95 | 1014.2 |
| 20260831134303 | 58 | 91 | 2.0 | 8.0 | 0.00 | 0.00 | 0.00 | 95 | 1014.1 |
| 20260831134205 | 58 | 95 | 2.0 | 4.0 | 0.00 | 0.00 | 0.00 | 95 | 1014.2 |
| 20260831134117 | 58 | 91 | 2.0 | 4.0 | 0.00 | 0.00 | 0.00 | 95 | 1014.0 |
| 20260831134003 | 58 | 99 | 2.0 | 7.0 | 0.00 | 0.00 | 0.00 | 95 | 1014.1 |
| 20260831133803 | 58 | 95 | 2.0 | 9.0 | 0.00 | 0.00 | 0.00 | 95 | 1014.0 |
| 20260831133718 | 58 | 95 | 1.0 | 9.0 | 0.00 | 0.00 | 0.00 | 95 | 1014.2 |
| 20260831133703 | 58 | 91 | 1.0 | 9.0 | 0.00 | 0.00 | 0.00 | 95 | 1014.2 |
| 20260831133605 | 58 | 70 | 1.0 | 9.0 | 0.00 | 0.00 | 0.00 | 95 | 1014.2 |
| 20260831133404 | 58 | 21 | 4.0 | 9.0 | 0.00 | 0.00 | 0.00 | 96 | 1014.2 |
| 20260831133303 | 58 | 37 | 4.0 | 7.0 | 0.00 | 0.00 | 0.00 | 96 | 1013.9 |
| 20260831133218 | 58 | 45 | 2.0 | 4.0 | 0.00 | 0.00 | 0.00 | 96 | 1014.1 |
| 20260831133205 | 58 | 56 | 2.0 | 4.0 | 0.00 | 0.00 | 0.00 | 96 | 1014.1 |
| 20260831133105 | 58 | 65 | 2.0 | 4.0 | 0.00 | 0.00 | 0.00 | 96 | 1014.1 |
| 20260831132903 | 58 | 72 | 2.0 | 8.0 | 0.00 | 0.00 | 0.00 | 96 | 1013.9 |
| 20260831132805 | 58 | 70 | 3.0 | 8.0 | 0.00 | 0.00 | 0.00 | 96 | 1013.9 |
| 20260831132703 | 58 | 80 | 2.0 | 8.0 | 0.00 | 0.00 | 0.00 | 96 | 1013.9 |
| 20260831132603 | 58 | 93 | 3.0 | 8.0 | 0.00 | 0.00 | 0.00 | 96 | 1013.9 |
| 20260831132518 | 58 | 93 | 2.0 | 8.0 | 0.00 | 0.00 | 0.00 | 96 | 1014.2 |
| 20260831132503 | 58 | 92 | 2.0 | 8.0 | 0.00 | 0.00 | 0.00 | 96 | 1014.2 |
| 20260831132417 | 58 | 102 | 5.0 | 8.0 | 0.00 | 0.00 | 0.00 | 96 | 1014.1 |
| 20260831132403 | 58 | 106 | 5.0 | 8.0 | 0.00 | 0.00 | 0.00 | 96 | 1014.1 |
| 20260831132103 | 58 | 109 | 0.0 | 7.0 | 0.00 | 0.00 | 0.00 | 96 | 1014.1 |
| 20260831132003 | 58 | 114 | 2.0 | 7.0 | 0.00 | 0.00 | 0.00 | 96 | 1013.9 |
| 20260831131903 | 58 | 108 | 3.0 | 9.0 | 0.00 | 0.00 | 0.00 | 96 | 1013.9 |
| 20260831131803 | 58 | 111 | 3.0 | 9.0 | 0.00 | 0.00 | 0.00 | 96 | 1014.0 |
| 20260831131703 | 58 | 109 | 3.0 | 9.0 | 0.00 | 0.00 | 0.00 | 96 | 1014.0 |
| 20260831131603 | 58 | 105 | 2.0 | 9.0 | 0.00 | 0.00 | 0.00 | 96 | 1014.0 |
| 20260831131503 | 57 | 105 | 4.0 | 9.0 | 0.00 | 0.00 | 0.00 | 96 | 1014.0 |
| 20260831131403 | 58 | 105 | 4.0 | 9.0 | 0.00 | 0.00 | 0.00 | 96 | 1013.9 |
| 20260831131303 | 58 | 102 | 6.0 | 9.0 | 0.00 | 0.00 | 0.00 | 96 | 1013.9 |
| 20260831131203 | 58 | 94 | 2.0 | 8.0 | 0.00 | 0.00 | 0.00 | 97 | 1014.1 |
| 20260831131104 | 58 | 90 | 3.0 | 7.0 | 0.00 | 0.00 | 0.00 | 97 | 1014.0 |
| 20260831131003 | 58 | 88 | 3.0 | 8.0 | 0.00 | 0.00 | 0.00 | 97 | 1014.0 |
| 20260831130903 | 58 | 93 | 2.0 | 8.0 | 0.00 | 0.00 | 0.00 | 97 | 1013.9 |
| 20260831130803 | 58 | 77 | 2.0 | 9.0 | 0.00 | 0.00 | 0.00 | 97 | 1014.0 |
| 20260831130703 | 58 | 87 | 3.0 | 9.0 | 0.00 | 0.00 | 0.00 | 97 | 1014.0 |
| 20260831130603 | 58 | 94 | 3.0 | 9.0 | 0.00 | 0.00 | 0.00 | 97 | 1013.9 |
| 20260831130503 | 58 | 95 | 4.0 | 9.0 | 0.00 | 0.00 | 0.00 | 97 | 1013.9 |
| 20260831130403 | 58 | 86 | 2.0 | 9.0 | 0.00 | 0.00 | 0.00 | 97 | 1014.0 |
| 20260831130317 | 58 | 90 | 4.0 | 9.0 | 0.00 | 0.00 | 0.00 | 97 | 1013.7 |
| 20260831130303 | 58 | 93 | 3.0 | 8.0 | 0.00 | 0.00 | 0.00 | 97 | 1014.1 |
| 20260831130203 | 58 | 78 | 3.0 | 7.0 | 0.00 | 0.00 | 0.00 | 97 | 1013.9 |
| 20260831130004 | 58 | 62 | 2.0 | 7.0 | 0.00 | 0.00 | 0.00 | 97 | 1013.8 |
| 20260831125918 | 58 | 73 | 3.0 | 7.0 | 0.00 | 0.00 | 0.00 | 97 | 1014.0 |
| 20260831125903 | 58 | 75 | 2.0 | 7.0 | 0.00 | 0.00 | 0.00 | 97 | 1014.0 |
| 20260831125803 | 58 | 80 | 4.0 | 7.0 | 0.00 | 0.00 | 0.00 | 97 | 1013.7 |
| 20260831125603 | 58 | 93 | 2.0 | 7.0 | 0.00 | 0.00 | 0.00 | 97 | 1013.7 |
| 20260831125503 | 58 | 92 | 2.0 | 7.0 | 0.00 | 0.00 | 0.00 | 97 | 1013.8 |
| 20260831125403 | 58 | 73 | 3.0 | 7.0 | 0.00 | 0.00 | 0.00 | 97 | 1013.8 |
| 20260831125306 | 58 | 72 | 3.0 | 7.0 | 0.00 | 0.00 | 0.00 | 97 | 1013.7 |
| 20260831125203 | 58 | 73 | 3.0 | 7.0 | 0.00 | 0.00 | 0.00 | 97 | 1013.8 |
| 20260831125103 | 58 | 74 | 2.0 | 9.0 | 0.00 | 0.00 | 0.00 | 97 | 1013.8 |
| 20260831125003 | 58 | 80 | 2.0 | 9.0 | 0.00 | 0.00 | 0.00 | 97 | 1013.8 |
| 20260831124918 | 58 | 84 | 3.0 | 9.0 | 0.00 | 0.00 | 0.00 | 97 | 1013.6 |
| 20260831124903 | 58 | 86 | 3.0 | 9.0 | 0.00 | 0.00 | 0.00 | 97 | 1013.6 |
| 20260831124803 | 58 | 92 | 2.0 | 9.0 | 0.00 | 0.00 | 0.00 | 97 | 1013.5 |
| 20260831124603 | 58 | 98 | 4.0 | 9.0 | 0.00 | 0.00 | 0.00 | 98 | 1014.0 |
| 20260831124503 | 58 | 105 | 2.0 | 6.0 | 0.00 | 0.00 | 0.00 | 98 | 1013.8 |
| 20260831124403 | 58 | 100 | 2.0 | 6.0 | 0.00 | 0.00 | 0.00 | 98 | 1013.8 |
| 20260831124203 | 58 | 85 | 2.0 | 6.0 | 0.00 | 0.00 | 0.00 | 98 | 1013.8 |
| 20260831124103 | 58 | 77 | 2.0 | 6.0 | 0.00 | 0.00 | 0.00 | 98 | 1013.9 |
| 20260831124003 | 58 | 69 | 2.0 | 4.0 | 0.00 | 0.00 | 0.00 | 98 | 1014.0 |
| 20260831123903 | 58 | 78 | 3.0 | 6.0 | 0.00 | 0.00 | 0.00 | 98 | 1013.9 |
| 20260831123803 | 58 | 85 | 1.0 | 6.0 | 0.00 | 0.00 | 0.00 | 98 | 1014.0 |
| 20260831123703 | 58 | 94 | 1.0 | 6.0 | 0.00 | 0.00 | 0.00 | 98 | 1014.1 |
| 20260831123603 | 58 | 96 | 1.0 | 6.0 | 0.00 | 0.00 | 0.00 | 98 | 1014.1 |
| 20260831123503 | 58 | 102 | 3.0 | 7.0 | 0.00 | 0.00 | 0.00 | 98 | 1014.0 |
| 20260831123403 | 58 | 94 | 1.0 | 7.0 | 0.00 | 0.00 | 0.00 | 98 | 1013.9 |
| 20260831123317 | 58 | 90 | 2.0 | 7.0 | 0.00 | 0.00 | 0.00 | 98 | 1014.0 |
| 20260831123303 | 58 | 88 | 2.0 | 7.0 | 0.00 | 0.00 | 0.00 | 98 | 1014.0 |
| 20260831123203 | 58 | 95 | 2.0 | 7.0 | 0.00 | 0.00 | 0.00 | 98 | 1014.3 |
| 20260831123003 | 58 | 69 | 3.0 | 8.0 | 0.00 | 0.00 | 0.00 | 98 | 1013.8 |
| 20260831122903 | 58 | 80 | 4.0 | 8.0 | 0.00 | 0.00 | 0.00 | 98 | 1014.0 |
| 20260831122803 | 58 | 77 | 2.0 | 8.0 | 0.00 | 0.00 | 0.00 | 98 | 1013.8 |
| 20260831122703 | 57 | 63 | 5.0 | 8.0 | 0.00 | 0.00 | 0.00 | 98 | 1013.9 |
| 20260831122603 | 58 | 76 | 4.0 | 7.0 | 0.00 | 0.00 | 0.00 | 98 | 1013.8 |
| 20260831122503 | 58 | 87 | 2.0 | 7.0 | 0.00 | 0.00 | 0.00 | 98 | 1014.0 |
| 20260831122403 | 58 | 74 | 2.0 | 7.0 | 0.00 | 0.00 | 0.00 | 98 | 1013.7 |
| 20260831122305 | 58 | 64 | 3.0 | 7.0 | 0.00 | 0.00 | 0.00 | 98 | 1013.7 |
| 20260831122203 | 57 | 58 | 3.0 | 7.0 | 0.00 | 0.00 | 0.00 | 98 | 1013.9 |
| 20260831122103 | 57 | 39 | 3.0 | 7.0 | 0.00 | 0.00 | 0.00 | 98 | 1013.8 |
| 20260831122017 | 57 | 40 | 2.0 | 7.0 | 0.00 | 0.00 | 0.00 | 98 | 1013.8 |
| 20260831122003 | 57 | 42 | 2.0 | 7.0 | 0.00 | 0.00 | 0.00 | 98 | 1013.8 |
| 20260831121903 | 57 | 43 | 3.0 | 7.0 | 0.00 | 0.00 | 0.00 | 98 | 1013.8 |
| 20260831121703 | 57 | 67 | 2.0 | 7.0 | 0.00 | 0.00 | 0.00 | 98 | 1013.8 |
| 20260831121603 | 57 | 74 | 2.0 | 7.0 | 0.00 | 0.00 | 0.00 | 98 | 1013.8 |
| 20260831121518 | 57 | 65 | 4.0 | 7.0 | 0.00 | 0.00 | 0.00 | 98 | 1013.7 |
| 20260831121503 | 57 | 64 | 2.0 | 7.0 | 0.00 | 0.00 | 0.00 | 98 | 1013.8 |
| 20260831121403 | 57 | 59 | 2.0 | 7.0 | 0.00 | 0.00 | 0.00 | 98 | 1013.8 |
| 20260831121317 | 57 | 57 | 2.0 | 7.0 | 0.00 | 0.00 | 0.00 | 98 | 1013.8 |
| 20260831121203 | 57 | 52 | 3.0 | 8.0 | 0.00 | 0.00 | 0.00 | 98 | 1013.7 |
| 20260831121003 | 57 | 109 | 4.0 | 14.0 | 0.00 | 0.00 | 0.00 | 98 | 1013.8 |
| 20260831120903 | 57 | 109 | 3.0 | 14.0 | 0.00 | 0.00 | 0.00 | 98 | 1014.0 |
| 20260831120803 | 57 | 102 | 4.0 | 14.0 | 0.00 | 0.00 | 0.00 | 98 | 1013.7 |
| 20260831120703 | 57 | 106 | 4.0 | 14.0 | 0.00 | 0.00 | 0.00 | 98 | 1013.4 |
| 20260831120603 | 57 | 85 | 6.0 | 14.0 | 0.00 | 0.00 | 0.00 | 98 | 1013.6 |
| 20260831120503 | 57 | 78 | 4.0 | 11.0 | 0.00 | 0.00 | 0.00 | 98 | 1013.7 |
| 20260831120403 | 57 | 75 | 5.0 | 11.0 | 0.00 | 0.00 | 0.00 | 98 | 1013.6 |
| 20260831120303 | 57 | 88 | 4.0 | 11.0 | 0.00 | 0.00 | 0.00 | 98 | 1013.8 |
| 20260831120203 | 57 | 95 | 5.0 | 11.0 | 0.00 | 0.00 | 0.00 | 98 | 1013.9 |
| 20260831120103 | 57 | 96 | 3.0 | 11.0 | 0.00 | 0.00 | 0.00 | 98 | 1013.8 |
| 20260831120004 | 57 | 90 | 4.0 | 11.0 | 0.00 | 0.00 | 0.00 | 98 | 1013.7 |
| 20260831115903 | 57 | 84 | 4.0 | 11.0 | 0.00 | 0.00 | 0.00 | 98 | 1013.6 |
| 20260831115803 | 57 | 61 | 6.0 | 11.0 | 0.00 | 0.00 | 0.00 | 98 | 1013.5 |
| 20260831115717 | 57 | 52 | 4.0 | 11.0 | 0.00 | 0.00 | 0.00 | 98 | 1013.6 |
| 20260831115703 | 57 | 50 | 4.0 | 11.0 | 0.00 | 0.00 | 0.00 | 98 | 1013.6 |
| 20260831115603 | 57 | 52 | 4.0 | 11.0 | 0.00 | 0.00 | 0.00 | 98 | 1013.6 |
| 20260831115518 | 57 | 61 | 4.0 | 11.0 | 0.00 | 0.00 | 0.00 | 98 | 1013.6 |
| 20260831115403 | 57 | 62 | 6.0 | 11.0 | 0.00 | 0.00 | 0.00 | 98 | 1013.6 |
| 20260831115317 | 57 | 78 | 4.0 | 11.0 | 0.00 | 0.00 | 0.00 | 98 | 1013.6 |
| 20260831115203 | 57 | 105 | 4.0 | 11.0 | 0.00 | 0.00 | 0.00 | 98 | 1013.6 |
| 20260831115003 | 57 | 82 | 4.0 | 11.0 | 0.00 | 0.00 | 0.00 | 98 | 1013.7 |
| 20260831114903 | 57 | 89 | 3.0 | 11.0 | 0.00 | 0.00 | 0.00 | 98 | 1013.5 |
| 20260831114803 | 57 | 99 | 4.0 | 11.0 | 0.00 | 0.00 | 0.00 | 98 | 1013.3 |
| 20260831114716 | 57 | 86 | 5.0 | 11.0 | 0.00 | 0.00 | 0.00 | 98 | 1013.5 |
| 20260831114703 | 57 | 84 | 6.0 | 11.0 | 0.00 | 0.00 | 0.00 | 98 | 1013.4 |
| 20260831114603 | 57 | 81 | 6.0 | 11.0 | 0.00 | 0.00 | 0.00 | 98 | 1013.3 |
| 20260831114403 | 57 | 80 | 4.0 | 11.0 | 0.00 | 0.00 | 0.00 | 98 | 1013.5 |
| 20260831114303 | 57 | 68 | 3.0 | 11.0 | 0.00 | 0.00 | 0.00 | 98 | 1013.6 |
| 20260831114203 | 57 | 72 | 5.0 | 11.0 | 0.00 | 0.00 | 0.00 | 98 | 1013.5 |
| 20260831114103 | 57 | 70 | 5.0 | 11.0 | 0.00 | 0.00 | 0.00 | 98 | 1013.4 |
| 20260831114003 | 57 | 65 | 4.0 | 11.0 | 0.00 | 0.00 | 0.00 | 98 | 1013.5 |
| 20260831113903 | 57 | 61 | 3.0 | 11.0 | 0.00 | 0.00 | 0.00 | 98 | 1013.5 |
| 20260831113803 | 57 | 58 | 2.0 | 11.0 | 0.00 | 0.00 | 0.00 | 98 | 1013.5 |
| 20260831113703 | 57 | 54 | 2.0 | 11.0 | 0.00 | 0.00 | 0.00 | 98 | 1013.5 |
| 20260831113605 | 57 | 64 | 2.0 | 11.0 | 0.00 | 0.00 | 0.00 | 98 | 1013.5 |
| 20260831113506 | 57 | 70 | 7.0 | 11.0 | 0.00 | 0.00 | 0.00 | 98 | 1013.5 |
| 20260831113418 | 57 | 69 | 6.0 | 11.0 | 0.00 | 0.00 | 0.00 | 98 | 1013.5 |
| 20260831113405 | 57 | 74 | 6.0 | 11.0 | 0.00 | 0.00 | 0.00 | 98 | 1013.5 |
| 20260831113304 | 57 | 84 | 5.0 | 8.0 | 0.00 | 0.00 | 0.00 | 98 | 1013.4 |
| 20260831113103 | 57 | 85 | 3.0 | 9.0 | 0.00 | 0.00 | 0.00 | 98 | 1013.1 |
| 20260831113003 | 57 | 85 | 4.0 | 9.0 | 0.00 | 0.00 | 0.00 | 98 | 1013.5 |
| 20260831112917 | 57 | 86 | 4.0 | 9.0 | 0.00 | 0.00 | 0.00 | 98 | 1013.4 |
| 20260831112903 | 57 | 83 | 4.0 | 9.0 | 0.00 | 0.00 | 0.00 | 98 | 1013.4 |
| 20260831112803 | 57 | 82 | 4.0 | 9.0 | 0.00 | 0.00 | 0.00 | 98 | 1013.2 |
| 20260831112603 | 57 | 74 | 6.0 | 9.0 | 0.00 | 0.00 | 0.00 | 98 | 1013.5 |
| 20260831112503 | 57 | 72 | 2.0 | 9.0 | 0.00 | 0.00 | 0.00 | 98 | 1013.5 |
| 20260831112403 | 57 | 71 | 4.0 | 11.0 | 0.00 | 0.00 | 0.00 | 98 | 1013.3 |
| 20260831112306 | 57 | 67 | 3.0 | 11.0 | 0.00 | 0.00 | 0.00 | 98 | 1013.4 |
| 20260831112203 | 57 | 63 | 4.0 | 11.0 | 0.00 | 0.00 | 0.00 | 98 | 1013.3 |
| 20260831112103 | 57 | 52 | 2.0 | 11.0 | 0.00 | 0.00 | 0.00 | 98 | 1013.5 |
| 20260831112003 | 57 | 52 | 2.0 | 11.0 | 0.00 | 0.00 | 0.00 | 98 | 1013.4 |
| 20260831111917 | 57 | 52 | 5.0 | 11.0 | 0.00 | 0.00 | 0.00 | 98 | 1013.2 |
| 20260831111903 | 57 | 51 | 5.0 | 9.0 | 0.00 | 0.00 | 0.00 | 98 | 1013.4 |
| 20260831111803 | 57 | 50 | 3.0 | 9.0 | 0.00 | 0.00 | 0.00 | 98 | 1013.3 |
| 20260831111603 | 57 | 65 | 3.0 | 9.0 | 0.00 | 0.00 | 0.00 | 98 | 1013.2 |
| 20260831111503 | 57 | 71 | 5.0 | 9.0 | 0.00 | 0.00 | 0.00 | 98 | 1013.1 |
| 20260831111403 | 57 | 71 | 4.0 | 8.0 | 0.00 | 0.00 | 0.00 | 98 | 1013.2 |
| 20260831111303 | 57 | 74 | 4.0 | 8.0 | 0.00 | 0.00 | 0.00 | 98 | 1013.3 |
| 20260831111203 | 57 | 74 | 3.0 | 8.0 | 0.00 | 0.00 | 0.00 | 98 | 1013.1 |
| 20260831111108 | 57 | 70 | 3.0 | 8.0 | 0.00 | 0.00 | 0.00 | 98 | 1013.2 |
| 20260831111003 | 57 | 66 | 2.0 | 8.0 | 0.00 | 0.00 | 0.00 | 98 | 1013.3 |
| 20260831110917 | 57 | 67 | 2.0 | 8.0 | 0.00 | 0.00 | 0.00 | 98 | 1013.1 |
| 20260831110903 | 57 | 68 | 2.0 | 8.0 | 0.00 | 0.00 | 0.00 | 98 | 1013.1 |
| 20260831110803 | 57 | 66 | 3.0 | 7.0 | 0.00 | 0.00 | 0.00 | 98 | 1013.2 |
| 20260831110718 | 57 | 75 | 3.0 | 7.0 | 0.00 | 0.00 | 0.00 | 98 | 1013.1 |
| 20260831110603 | 57 | 80 | 3.0 | 7.0 | 0.00 | 0.00 | 0.00 | 98 | 1013.3 |
| 20260831110403 | 57 | 85 | 2.0 | 7.0 | 0.00 | 0.00 | 0.00 | 98 | 1013.3 |
| 20260831110303 | 57 | 84 | 3.0 | 9.0 | 0.00 | 0.00 | 0.00 | 98 | 1013.3 |
| 20260831110203 | 57 | 84 | 2.0 | 9.0 | 0.00 | 0.00 | 0.00 | 98 | 1013.0 |
| 20260831110003 | 57 | 82 | 3.0 | 9.0 | 0.00 | 0.00 | 0.00 | 98 | 1013.0 |
| 20260831105903 | 57 | 86 | 4.0 | 9.0 | 0.00 | 0.00 | 0.00 | 98 | 1013.1 |
| 20260831105803 | 57 | 79 | 5.0 | 9.0 | 0.00 | 0.00 | 0.00 | 98 | 1013.2 |
| 20260831105703 | 57 | 71 | 4.0 | 8.0 | 0.00 | 0.00 | 0.00 | 98 | 1013.1 |
| 20260831105603 | 57 | 56 | 4.0 | 8.0 | 0.00 | 0.00 | 0.00 | 98 | 1013.2 |
| 20260831105503 | 57 | 60 | 3.0 | 8.0 | 0.00 | 0.00 | 0.00 | 98 | 1013.2 |
| 20260831105418 | 57 | 60 | 2.0 | 8.0 | 0.00 | 0.00 | 0.00 | 98 | 1013.4 |
| 20260831105405 | 57 | 66 | 2.0 | 8.0 | 0.00 | 0.00 | 0.00 | 98 | 1013.4 |
| 20260831105306 | 57 | 79 | 3.0 | 8.0 | 0.00 | 0.00 | 0.00 | 98 | 1013.4 |
| 20260831105103 | 57 | 90 | 6.0 | 8.0 | 0.00 | 0.00 | 0.00 | 98 | 1013.1 |
| 20260831105018 | 57 | 97 | 3.0 | 8.0 | 0.00 | 0.00 | 0.00 | 98 | 1013.4 |
| 20260831105003 | 57 | 95 | 3.0 | 8.0 | 0.00 | 0.00 | 0.00 | 98 | 1013.4 |
| 20260831104903 | 57 | 94 | 4.0 | 8.0 | 0.00 | 0.00 | 0.00 | 98 | 1013.2 |
| 20260831104703 | 57 | 76 | 2.0 | 9.0 | 0.00 | 0.00 | 0.00 | 98 | 1012.9 |
| 20260831104603 | 57 | 65 | 2.0 | 9.0 | 0.00 | 0.00 | 0.00 | 98 | 1013.2 |
| 20260831104503 | 57 | 50 | 3.0 | 9.0 | 0.00 | 0.00 | 0.00 | 98 | 1013.0 |
| 20260831104403 | 57 | 50 | 4.0 | 9.0 | 0.00 | 0.00 | 0.00 | 98 | 1013.0 |
| 20260831104303 | 57 | 58 | 3.0 | 9.0 | 0.00 | 0.00 | 0.00 | 98 | 1013.0 |
| 20260831104203 | 57 | 65 | 2.0 | 9.0 | 0.00 | 0.00 | 0.00 | 98 | 1013.0 |
| 20260831104118 | 57 | 66 | 3.0 | 9.0 | 0.00 | 0.00 | 0.00 | 98 | 1013.0 |
| 20260831104103 | 57 | 67 | 3.0 | 9.0 | 0.00 | 0.00 | 0.00 | 98 | 1013.0 |
| 20260831104003 | 57 | 71 | 4.0 | 9.0 | 0.00 | 0.00 | 0.00 | 98 | 1013.0 |
| 20260831103803 | 57 | 67 | 4.0 | 11.0 | 0.00 | 0.00 | 0.00 | 98 | 1012.9 |
| 20260831103703 | 57 | 67 | 2.0 | 11.0 | 0.00 | 0.00 | 0.00 | 98 | 1013.0 |
| 20260831103603 | 57 | 73 | 4.0 | 11.0 | 0.00 | 0.00 | 0.00 | 98 | 1013.1 |
| 20260831103504 | 57 | 85 | 5.0 | 11.0 | 0.00 | 0.00 | 0.00 | 98 | 1013.1 |
| 20260831103403 | 57 | 88 | 6.0 | 11.0 | 0.00 | 0.00 | 0.00 | 98 | 1012.9 |
| 20260831103303 | 57 | 87 | 4.0 | 11.0 | 0.00 | 0.00 | 0.00 | 98 | 1013.0 |
| 20260831103217 | 57 | 85 | 4.0 | 11.0 | 0.00 | 0.00 | 0.00 | 98 | 1012.8 |
| 20260831103203 | 57 | 83 | 4.0 | 11.0 | 0.00 | 0.00 | 0.00 | 98 | 1012.8 |
| 20260831103103 | 57 | 70 | 4.0 | 11.0 | 0.00 | 0.00 | 0.00 | 98 | 1013.0 |
| 20260831102903 | 57 | 60 | 5.0 | 11.0 | 0.00 | 0.00 | 0.00 | 98 | 1013.1 |
| 20260831102803 | 57 | 49 | 5.0 | 11.0 | 0.00 | 0.00 | 0.00 | 98 | 1012.8 |
| 20260831102703 | 57 | 44 | 5.0 | 11.0 | 0.00 | 0.00 | 0.00 | 98 | 1013.0 |
| 20260831102603 | 57 | 56 | 3.0 | 11.0 | 0.00 | 0.00 | 0.00 | 98 | 1012.9 |
| 20260831102517 | 57 | 52 | 4.0 | 11.0 | 0.00 | 0.00 | 0.00 | 98 | 1012.9 |
| 20260831102503 | 57 | 48 | 4.0 | 11.0 | 0.00 | 0.00 | 0.00 | 98 | 1012.9 |
| 20260831102403 | 57 | 43 | 4.0 | 11.0 | 0.00 | 0.00 | 0.00 | 97 | 1012.9 |
| 20260831102318 | 57 | 54 | 4.0 | 11.0 | 0.00 | 0.00 | 0.00 | 97 | 1012.6 |
| 20260831102203 | 57 | 61 | 6.0 | 11.0 | 0.00 | 0.00 | 0.00 | 98 | 1013.0 |
| 20260831102118 | 57 | 63 | 6.0 | 11.0 | 0.00 | 0.00 | 0.00 | 97 | 1013.0 |
| 20260831102003 | 57 | 62 | 2.0 | 7.0 | 0.00 | 0.00 | 0.00 | 97 | 1012.7 |
| 20260831101803 | 57 | 65 | 3.0 | 7.0 | 0.00 | 0.00 | 0.00 | 97 | 1012.9 |
| 20260831101703 | 57 | 67 | 2.0 | 7.0 | 0.00 | 0.00 | 0.00 | 97 | 1013.0 |
| 20260831101603 | 57 | 64 | 4.0 | 8.0 | 0.00 | 0.00 | 0.00 | 97 | 1012.9 |
| 20260831101503 | 57 | 65 | 2.0 | 8.0 | 0.00 | 0.00 | 0.00 | 97 | 1012.9 |
| 20260831101403 | 57 | 65 | 2.0 | 8.0 | 0.00 | 0.00 | 0.00 | 97 | 1013.0 |
| 20260831101303 | 57 | 72 | 2.0 | 8.0 | 0.00 | 0.00 | 0.00 | 97 | 1013.0 |
| 20260831101203 | 57 | 69 | 1.0 | 8.0 | 0.00 | 0.00 | 0.00 | 97 | 1013.0 |
| 20260831101103 | 57 | 61 | 2.0 | 8.0 | 0.00 | 0.00 | 0.00 | 97 | 1012.9 |
| 20260831101003 | 57 | 64 | 2.0 | 8.0 | 0.00 | 0.00 | 0.00 | 97 | 1012.9 |
| 20260831100903 | 57 | 77 | 4.0 | 8.0 | 0.00 | 0.00 | 0.00 | 97 | 1012.9 |
| 20260831100803 | 57 | 80 | 3.0 | 8.0 | 0.00 | 0.00 | 0.00 | 97 | 1012.9 |
| 20260831100703 | 57 | 71 | 4.0 | 8.0 | 0.00 | 0.00 | 0.00 | 97 | 1013.0 |
| 20260831100603 | 57 | 89 | 3.0 | 8.0 | 0.00 | 0.00 | 0.00 | 97 | 1013.1 |
| 20260831100517 | 57 | 100 | 4.0 | 8.0 | 0.00 | 0.00 | 0.00 | 97 | 1012.9 |
| 20260831100503 | 57 | 102 | 4.0 | 8.0 | 0.00 | 0.00 | 0.00 | 97 | 1012.9 |
| 20260831100417 | 57 | 99 | 4.0 | 7.0 | 0.00 | 0.00 | 0.00 | 97 | 1013.2 |
| 20260831100403 | 57 | 96 | 4.0 | 7.0 | 0.00 | 0.00 | 0.00 | 97 | 1013.2 |
| 20260831100103 | 57 | 81 | 4.0 | 9.0 | 0.00 | 0.00 | 0.00 | 97 | 1012.7 |
| 20260831100007 | 57 | 73 | 4.0 | 9.0 | 0.00 | 0.00 | 0.00 | 97 | 1013.0 |
| 20260831095903 | 57 | 65 | 4.0 | 9.0 | 0.00 | 0.00 | 0.00 | 97 | 1013.0 |
| 20260831095803 | 57 | 64 | 5.0 | 9.0 | 0.00 | 0.00 | 0.00 | 97 | 1013.1 |
| 20260831095703 | 57 | 85 | 2.0 | 8.0 | 0.00 | 0.00 | 0.00 | 97 | 1012.7 |
| 20260831095603 | 57 | 81 | 3.0 | 8.0 | 0.00 | 0.00 | 0.00 | 97 | 1012.8 |
| 20260831095503 | 57 | 93 | 2.0 | 8.0 | 0.00 | 0.00 | 0.00 | 97 | 1013.1 |
| 20260831095417 | 57 | 103 | 4.0 | 8.0 | 0.00 | 0.00 | 0.00 | 97 | 1012.9 |
| 20260831095403 | 57 | 99 | 4.0 | 8.0 | 0.00 | 0.00 | 0.00 | 97 | 1012.9 |
| 20260831095306 | 57 | 80 | 1.0 | 9.0 | 0.00 | 0.00 | 0.00 | 97 | 1013.0 |
| 20260831095103 | 57 | 63 | 4.0 | 9.0 | 0.00 | 0.00 | 0.00 | 97 | 1013.0 |
| 20260831095004 | 57 | 53 | 2.0 | 9.0 | 0.00 | 0.00 | 0.00 | 97 | 1013.0 |
| 20260831094903 | 57 | 45 | 4.0 | 9.0 | 0.00 | 0.00 | 0.00 | 97 | 1013.0 |
| 20260831094806 | 57 | 47 | 4.0 | 9.0 | 0.00 | 0.00 | 0.00 | 97 | 1013.1 |
| 20260831094703 | 57 | 51 | 3.0 | 8.0 | 0.00 | 0.00 | 0.00 | 97 | 1013.0 |
| 20260831094603 | 57 | 66 | 4.0 | 8.0 | 0.00 | 0.00 | 0.00 | 97 | 1013.0 |
| 20260831094503 | 57 | 69 | 3.0 | 8.0 | 0.00 | 0.00 | 0.00 | 97 | 1012.8 |
| 20260831094403 | 57 | 69 | 3.0 | 8.0 | 0.00 | 0.00 | 0.00 | 97 | 1013.1 |
| 20260831094203 | 57 | 86 | 3.0 | 9.0 | 0.00 | 0.00 | 0.00 | 97 | 1012.9 |
| 20260831094103 | 57 | 83 | 5.0 | 9.0 | 0.00 | 0.00 | 0.00 | 97 | 1012.9 |
| 20260831094003 | 57 | 82 | 4.0 | 9.0 | 0.00 | 0.00 | 0.00 | 97 | 1013.1 |
| 20260831093904 | 57 | 80 | 4.0 | 11.0 | 0.00 | 0.00 | 0.00 | 97 | 1013.0 |
| 20260831093805 | 57 | 73 | 3.0 | 11.0 | 0.00 | 0.00 | 0.00 | 97 | 1012.8 |
| 20260831093703 | 57 | 64 | 4.0 | 13.0 | 0.00 | 0.00 | 0.00 | 97 | 1013.0 |
| 20260831093603 | 57 | 58 | 3.0 | 13.0 | 0.00 | 0.00 | 0.00 | 97 | 1013.3 |
| 20260831093503 | 57 | 53 | 6.0 | 13.0 | 0.00 | 0.00 | 0.00 | 97 | 1012.9 |
| 20260831093405 | 57 | 54 | 4.0 | 13.0 | 0.00 | 0.00 | 0.00 | 97 | 1012.9 |
| 20260831093305 | 57 | 52 | 4.0 | 13.0 | 0.00 | 0.00 | 0.00 | 97 | 1013.0 |
| 20260831093203 | 57 | 57 | 5.0 | 13.0 | 0.00 | 0.00 | 0.00 | 97 | 1012.7 |
| 20260831093105 | 57 | 60 | 2.0 | 9.0 | 0.00 | 0.00 | 0.00 | 97 | 1012.7 |
| 20260831093003 | 57 | 74 | 3.0 | 9.0 | 0.00 | 0.00 | 0.00 | 97 | 1012.7 |
| 20260831092903 | 57 | 80 | 4.0 | 9.0 | 0.00 | 0.00 | 0.00 | 97 | 1012.8 |
| 20260831092803 | 57 | 81 | 4.0 | 9.0 | 0.00 | 0.00 | 0.00 | 97 | 1012.7 |
| 20260831092717 | 57 | 75 | 4.0 | 9.0 | 0.00 | 0.00 | 0.00 | 97 | 1012.9 |
| 20260831092703 | 57 | 73 | 6.0 | 9.0 | 0.00 | 0.00 | 0.00 | 97 | 1012.7 |
| 20260831092605 | 57 | 77 | 4.0 | 9.0 | 0.00 | 0.00 | 0.00 | 97 | 1012.8 |
| 20260831092403 | 57 | 81 | 7.0 | 9.0 | 0.00 | 0.00 | 0.00 | 97 | 1012.6 |
| 20260831092306 | 57 | 85 | 4.0 | 11.0 | 0.00 | 0.00 | 0.00 | 97 | 1012.7 |
| 20260831092205 | 57 | 96 | 4.0 | 11.0 | 0.00 | 0.00 | 0.00 | 97 | 1012.6 |
| 20260831092103 | 57 | 102 | 4.0 | 11.0 | 0.00 | 0.00 | 0.00 | 97 | 1012.8 |
| 20260831092018 | 57 | 112 | 4.0 | 11.0 | 0.00 | 0.00 | 0.00 | 97 | 1012.5 |
| 20260831092003 | 57 | 116 | 4.0 | 11.0 | 0.00 | 0.00 | 0.00 | 97 | 1012.5 |
| 20260831091903 | 57 | 96 | 4.0 | 11.0 | 0.00 | 0.00 | 0.00 | 96 | 1012.9 |
| 20260831091704 | 57 | 93 | 4.0 | 8.0 | 0.00 | 0.00 | 0.00 | 96 | 1012.5 |
| 20260831091603 | 57 | 82 | 4.0 | 8.0 | 0.00 | 0.00 | 0.00 | 96 | 1012.6 |
| 20260831091503 | 57 | 67 | 3.0 | 8.0 | 0.00 | 0.00 | 0.00 | 96 | 1012.6 |
| 20260831091417 | 57 | 73 | 4.0 | 8.0 | 0.00 | 0.00 | 0.00 | 96 | 1012.8 |
| 20260831091405 | 57 | 69 | 4.0 | 8.0 | 0.00 | 0.00 | 0.00 | 96 | 1012.8 |
| 20260831091303 | 57 | 61 | 4.0 | 8.0 | 0.00 | 0.00 | 0.00 | 96 | 1012.6 |
| 20260831091103 | 57 | 55 | 4.0 | 8.0 | 0.00 | 0.00 | 0.00 | 96 | 1012.6 |
| 20260831091003 | 57 | 54 | 3.0 | 8.0 | 0.00 | 0.00 | 0.00 | 96 | 1013.0 |
| 20260831090918 | 57 | 62 | 4.0 | 8.0 | 0.00 | 0.00 | 0.00 | 96 | 1012.6 |
| 20260831090903 | 57 | 65 | 4.0 | 8.0 | 0.00 | 0.00 | 0.00 | 96 | 1012.6 |
| 20260831090805 | 57 | 73 | 1.0 | 9.0 | 0.00 | 0.00 | 0.00 | 96 | 1012.7 |
| 20260831090605 | 57 | 82 | 4.0 | 9.0 | 0.00 | 0.00 | 0.00 | 96 | 1012.9 |
| 20260831090503 | 57 | 84 | 3.0 | 9.0 | 0.00 | 0.00 | 0.00 | 96 | 1012.6 |
| 20260831090403 | 57 | 79 | 3.0 | 9.0 | 0.00 | 0.00 | 0.00 | 96 | 1012.7 |
| 20260831090303 | 57 | 75 | 3.0 | 8.0 | 0.00 | 0.00 | 0.00 | 96 | 1012.7 |
| 20260831090203 | 57 | 80 | 3.0 | 7.0 | 0.00 | 0.00 | 0.00 | 96 | 1012.9 |
| 20260831090105 | 56 | 78 | 3.0 | 7.0 | 0.00 | 0.00 | 0.00 | 96 | 1012.7 |
| 20260831090004 | 56 | 73 | 3.0 | 7.0 | 0.00 | 0.00 | 0.00 | 96 | 1012.7 |
| 20260831085903 | 56 | 69 | 3.0 | 7.0 | 0.00 | 0.00 | 0.00 | 96 | 1012.7 |
| 20260831085805 | 56 | 59 | 2.0 | 6.0 | 0.00 | 0.00 | 0.00 | 96 | 1012.6 |
| 20260831085707 | 56 | 54 | 2.0 | 6.0 | 0.00 | 0.00 | 0.00 | 96 | 1012.7 |
| 20260831085618 | 56 | 52 | 2.0 | 7.0 | 0.00 | 0.00 | 0.00 | 96 | 1012.7 |
| 20260831085603 | 56 | 50 | 2.0 | 7.0 | 0.00 | 0.00 | 0.00 | 96 | 1012.7 |
| 20260831085517 | 56 | 58 | 2.0 | 7.0 | 0.00 | 0.00 | 0.00 | 96 | 1012.5 |
| 20260831085503 | 56 | 61 | 1.0 | 7.0 | 0.00 | 0.00 | 0.00 | 96 | 1012.6 |
| 20260831085203 | 56 | 72 | 3.0 | 7.0 | 0.00 | 0.00 | 0.00 | 96 | 1012.5 |
| 20260831085103 | 56 | 95 | 4.0 | 7.0 | 0.00 | 0.00 | 0.00 | 96 | 1012.6 |
| 20260831085003 | 56 | 91 | 1.0 | 4.0 | 0.00 | 0.00 | 0.00 | 96 | 1012.6 |
| 20260831084903 | 56 | 80 | 1.0 | 4.0 | 0.00 | 0.00 | 0.00 | 96 | 1012.5 |
| 20260831084803 | 56 | 84 | 1.0 | 7.0 | 0.00 | 0.00 | 0.00 | 96 | 1012.7 |
| 20260831084717 | 56 | 92 | 1.0 | 7.0 | 0.00 | 0.00 | 0.00 | 96 | 1012.7 |
| 20260831084703 | 56 | 90 | 1.0 | 7.0 | 0.00 | 0.00 | 0.00 | 96 | 1012.6 |
| 20260831084603 | 56 | 83 | 1.0 | 7.0 | 0.00 | 0.00 | 0.00 | 96 | 1012.6 |
| 20260831084403 | 56 | 75 | 1.0 | 7.0 | 0.00 | 0.00 | 0.00 | 96 | 1012.9 |
| 20260831084318 | 56 | 71 | 4.0 | 7.0 | 0.00 | 0.00 | 0.00 | 96 | 1012.8 |
| 20260831084303 | 56 | 69 | 2.0 | 6.0 | 0.00 | 0.00 | 0.00 | 96 | 1012.6 |
| 20260831084203 | 56 | 52 | 2.0 | 6.0 | 0.00 | 0.00 | 0.00 | 96 | 1012.6 |
| 20260831084003 | 56 | 46 | 2.0 | 6.0 | 0.00 | 0.00 | 0.00 | 96 | 1012.6 |
| 20260831083903 | 56 | 49 | 2.0 | 6.0 | 0.00 | 0.00 | 0.00 | 96 | 1012.8 |
| 20260831083803 | 56 | 47 | 2.0 | 7.0 | 0.00 | 0.00 | 0.00 | 96 | 1012.6 |
| 20260831083717 | 56 | 49 | 3.0 | 7.0 | 0.00 | 0.00 | 0.00 | 96 | 1012.5 |
| 20260831083603 | 56 | 49 | 2.0 | 7.0 | 0.00 | 0.00 | 0.00 | 96 | 1012.8 |
| 20260831083403 | 56 | 32 | 1.0 | 7.0 | 0.00 | 0.00 | 0.00 | 96 | 1012.7 |
| 20260831083317 | 56 | 35 | 3.0 | 7.0 | 0.00 | 0.00 | 0.00 | 96 | 1012.7 |
| 20260831083303 | 56 | 38 | 3.0 | 7.0 | 0.00 | 0.00 | 0.00 | 96 | 1012.7 |
| 20260831083203 | 56 | 50 | 3.0 | 7.0 | 0.00 | 0.00 | 0.00 | 96 | 1012.7 |
| 20260831083003 | 56 | 97 | 1.0 | 8.0 | 0.00 | 0.00 | 0.00 | 95 | 1012.7 |
| 20260831082918 | 56 | 111 | 2.0 | 8.0 | 0.00 | 0.00 | 0.00 | 95 | 1012.6 |
| 20260831082903 | 56 | 113 | 2.0 | 8.0 | 0.00 | 0.00 | 0.00 | 95 | 1012.6 |
| 20260831082803 | 56 | 107 | 2.0 | 8.0 | 0.00 | 0.00 | 0.00 | 95 | 1012.8 |
| 20260831082717 | 56 | 107 | 2.0 | 8.0 | 0.00 | 0.00 | 0.00 | 95 | 1012.8 |
| 20260831082603 | 56 | 105 | 2.0 | 8.0 | 0.00 | 0.00 | 0.00 | 95 | 1012.5 |
| 20260831082403 | 56 | 81 | 2.0 | 8.0 | 0.00 | 0.00 | 0.00 | 95 | 1012.7 |
| 20260831082306 | 56 | 80 | 1.0 | 6.0 | 0.00 | 0.00 | 0.00 | 95 | 1012.6 |
| 20260831082218 | 56 | 82 | 1.0 | 6.0 | 0.00 | 0.00 | 0.00 | 95 | 1012.8 |
| 20260831082203 | 56 | 79 | 1.0 | 6.0 | 0.00 | 0.00 | 0.00 | 95 | 1012.8 |
| 20260831082103 | 56 | 74 | 3.0 | 6.0 | 0.00 | 0.00 | 0.00 | 95 | 1012.5 |
| 20260831082017 | 55 | 75 | 2.0 | 6.0 | 0.00 | 0.00 | 0.00 | 95 | 1012.7 |
| 20260831081903 | 56 | 73 | 2.0 | 6.0 | 0.00 | 0.00 | 0.00 | 95 | 1012.7 |
| 20260831081819 | 55 | 72 | 2.0 | 6.0 | 0.00 | 0.00 | 0.00 | 95 | 1012.7 |
| 20260831081703 | 56 | 81 | 3.0 | 6.0 | 0.00 | 0.00 | 0.00 | 95 | 1012.7 |
| 20260831081503 | 56 | 81 | 0.0 | 7.0 | 0.00 | 0.00 | 0.00 | 95 | 1012.7 |
| 20260831081403 | 55 | 81 | 1.0 | 7.0 | 0.00 | 0.00 | 0.00 | 95 | 1012.7 |
| 20260831081303 | 55 | 93 | 1.0 | 7.0 | 0.00 | 0.00 | 0.00 | 95 | 1012.5 |
| 20260831081218 | 55 | 89 | 3.0 | 7.0 | 0.00 | 0.00 | 0.00 | 95 | 1012.5 |
| 20260831081203 | 55 | 87 | 3.0 | 7.0 | 0.00 | 0.00 | 0.00 | 95 | 1012.5 |
| 20260831081108 | 55 | 92 | 2.0 | 7.0 | 0.00 | 0.00 | 0.00 | 95 | 1012.6 |
| 20260831080922 | 56 | 100 | 1.0 | 7.0 | 0.00 | 0.00 | 0.00 | 95 | 1012.5 |
| 20260831080903 | 56 | 103 | 1.0 | 7.0 | 0.00 | 0.00 | 0.00 | 95 | 1012.5 |
| 20260831080803 | 55 | 97 | 3.0 | 7.0 | 0.00 | 0.00 | 0.00 | 95 | 1012.5 |
| 20260831080603 | 56 | 87 | 2.0 | 6.0 | 0.00 | 0.00 | 0.00 | 95 | 1012.7 |
| 20260831080503 | 56 | 81 | 2.0 | 4.0 | 0.00 | 0.00 | 0.00 | 95 | 1012.6 |
| 20260831080403 | 56 | 80 | 1.0 | 4.0 | 0.00 | 0.00 | 0.00 | 95 | 1012.7 |
| 20260831080303 | 56 | 88 | 1.0 | 7.0 | 0.00 | 0.00 | 0.00 | 95 | 1012.6 |
| 20260831080203 | 56 | 92 | 1.0 | 7.0 | 0.00 | 0.00 | 0.00 | 95 | 1012.6 |
| 20260831080004 | 56 | 101 | 2.0 | 7.0 | 0.00 | 0.00 | 0.00 | 95 | 1012.6 |
| 20260831075803 | 56 | 65 | 2.0 | 7.0 | 0.00 | 0.00 | 0.00 | 95 | 1013.0 |
| 20260831075703 | 56 | 71 | 1.0 | 7.0 | 0.00 | 0.00 | 0.00 | 95 | 1012.6 |
| 20260831075603 | 56 | 68 | 0.0 | 7.0 | 0.00 | 0.00 | 0.00 | 95 | 1012.7 |
| 20260831075505 | 56 | 58 | 2.0 | 7.0 | 0.00 | 0.00 | 0.00 | 95 | 1012.7 |
| 20260831075306 | 56 | 90 | 2.0 | 7.0 | 0.00 | 0.00 | 0.00 | 95 | 1012.7 |
| 20260831075203 | 56 | 86 | 2.0 | 7.0 | 0.00 | 0.00 | 0.00 | 95 | 1012.7 |
| 20260831075005 | 56 | 101 | 2.0 | 7.0 | 0.00 | 0.00 | 0.00 | 95 | 1012.6 |
| 20260831074905 | 55 | 90 | 0.0 | 7.0 | 0.00 | 0.00 | 0.00 | 95 | 1012.6 |
| 20260831074803 | 56 | 96 | 0.0 | 7.0 | 0.00 | 0.00 | 0.00 | 95 | 1012.6 |
| 20260831074703 | 55 | 101 | 2.0 | 7.0 | 0.00 | 0.00 | 0.00 | 95 | 1012.6 |
| 20260831074617 | 55 | 101 | 4.0 | 7.0 | 0.00 | 0.00 | 0.00 | 95 | 1012.6 |
| 20260831074603 | 55 | 99 | 4.0 | 7.0 | 0.00 | 0.00 | 0.00 | 95 | 1012.6 |
| 20260831074503 | 55 | 101 | 2.0 | 7.0 | 0.00 | 0.00 | 0.00 | 95 | 1012.6 |
| 20260831074304 | 55 | 83 | 2.0 | 8.0 | 0.00 | 0.00 | 0.00 | 95 | 1012.5 |
| 20260831074204 | 55 | 72 | 0.0 | 8.0 | 0.00 | 0.00 | 0.00 | 95 | 1012.6 |
| 20260831074103 | 55 | 83 | 1.0 | 8.0 | 0.00 | 0.00 | 0.00 | 95 | 1012.6 |
| 20260831074017 | 55 | 76 | 1.0 | 8.0 | 0.00 | 0.00 | 0.00 | 95 | 1012.4 |
| 20260831074003 | 55 | 73 | 1.0 | 8.0 | 0.00 | 0.00 | 0.00 | 95 | 1012.4 |
| 20260831073903 | 55 | 62 | 4.0 | 8.0 | 0.00 | 0.00 | 0.00 | 95 | 1012.6 |
| 20260831073818 | 55 | 66 | 2.0 | 6.0 | 0.00 | 0.00 | 0.00 | 95 | 1012.7 |
| 20260831073717 | 55 | 75 | 2.0 | 6.0 | 0.00 | 0.00 | 0.00 | 95 | 1012.6 |
| 20260831073703 | 55 | 73 | 2.0 | 6.0 | 0.00 | 0.00 | 0.00 | 95 | 1012.6 |
| 20260831073403 | 55 | 86 | 2.0 | 6.0 | 0.00 | 0.00 | 0.00 | 95 | 1012.7 |
| 20260831073304 | 55 | 77 | 2.0 | 6.0 | 0.00 | 0.00 | 0.00 | 95 | 1012.7 |
| 20260831073203 | 55 | 69 | 2.0 | 6.0 | 0.00 | 0.00 | 0.00 | 95 | 1012.6 |
| 20260831073118 | 55 | 77 | 2.0 | 7.0 | 0.00 | 0.00 | 0.00 | 94 | 1012.6 |
| 20260831073017 | 55 | 65 | 2.0 | 7.0 | 0.00 | 0.00 | 0.00 | 94 | 1012.8 |
| 20260831073003 | 55 | 64 | 2.0 | 7.0 | 0.00 | 0.00 | 0.00 | 94 | 1012.8 |
| 20260831072705 | 56 | 83 | 2.0 | 7.0 | 0.00 | 0.00 | 0.00 | 94 | 1012.7 |
| 20260831072603 | 56 | 82 | 1.0 | 7.0 | 0.00 | 0.00 | 0.00 | 94 | 1012.9 |
| 20260831072505 | 56 | 84 | 2.0 | 7.0 | 0.00 | 0.00 | 0.00 | 94 | 1012.9 |
| 20260831072405 | 56 | 92 | 3.0 | 7.0 | 0.00 | 0.00 | 0.00 | 94 | 1012.9 |
| 20260831072317 | 56 | 88 | 2.0 | 7.0 | 0.00 | 0.00 | 0.00 | 94 | 1012.7 |
| 20260831072203 | 56 | 84 | 2.0 | 7.0 | 0.00 | 0.00 | 0.00 | 94 | 1012.9 |
| 20260831072017 | 56 | 97 | 0.0 | 6.0 | 0.00 | 0.00 | 0.00 | 94 | 1012.8 |
| 20260831072003 | 56 | 100 | 0.0 | 6.0 | 0.00 | 0.00 | 0.00 | 94 | 1012.8 |
| 20260831071904 | 56 | 97 | 1.0 | 6.0 | 0.00 | 0.00 | 0.00 | 94 | 1012.9 |
| 20260831071703 | 56 | 113 | 2.0 | 6.0 | 0.00 | 0.00 | 0.00 | 94 | 1012.7 |
| 20260831071603 | 56 | 106 | 4.0 | 6.0 | 0.00 | 0.00 | 0.00 | 94 | 1013.0 |
| 20260831071505 | 56 | 95 | 2.0 | 6.0 | 0.00 | 0.00 | 0.00 | 94 | 1012.9 |
| 20260831071403 | 56 | 88 | 2.0 | 6.0 | 0.00 | 0.00 | 0.00 | 94 | 1013.1 |
| 20260831071305 | 56 | 72 | 1.0 | 7.0 | 0.00 | 0.00 | 0.00 | 94 | 1013.0 |
| 20260831071203 | 56 | 65 | 3.0 | 7.0 | 0.00 | 0.00 | 0.00 | 94 | 1013.0 |
| 20260831071103 | 56 | 63 | 3.0 | 7.0 | 0.00 | 0.00 | 0.00 | 94 | 1013.2 |
| 20260831071003 | 56 | 50 | 3.0 | 7.0 | 0.00 | 0.00 | 0.00 | 94 | 1012.9 |
| 20260831070939 | 56 | 47 | 3.0 | 7.0 | 0.00 | 0.00 | 0.00 | 94 | 1012.9 |
| 20260831070805 | 56 | 51 | 4.0 | 7.0 | 0.00 | 0.00 | 0.00 | 94 | 1013.3 |
| 20260831070704 | 56 | 63 | 4.0 | 6.0 | 0.00 | 0.00 | 0.00 | 94 | 1013.2 |
| 20260831070605 | 56 | 65 | 2.0 | 6.0 | 0.00 | 0.00 | 0.00 | 94 | 1013.2 |
| 20260831070503 | 56 | 83 | 2.0 | 6.0 | 0.00 | 0.00 | 0.00 | 94 | 1013.0 |
| 20260831070405 | 56 | 93 | 3.0 | 6.0 | 0.00 | 0.00 | 0.00 | 94 | 1013.3 |
| 20260831070303 | 56 | 107 | 3.0 | 6.0 | 0.00 | 0.00 | 0.00 | 94 | 1013.3 |
| 20260831070203 | 56 | 106 | 2.0 | 6.0 | 0.00 | 0.00 | 0.00 | 94 | 1013.0 |
| 20260831070118 | 56 | 107 | 2.0 | 6.0 | 0.00 | 0.00 | 0.00 | 94 | 1013.1 |
| 20260831070103 | 56 | 101 | 2.0 | 6.0 | 0.00 | 0.00 | 0.00 | 94 | 1013.1 |
| 20260831070003 | 56 | 91 | 2.0 | 6.0 | 0.00 | 0.00 | 0.00 | 94 | 1013.4 |
| 20260831065803 | 56 | 70 | 2.0 | 8.0 | 0.00 | 0.00 | 0.00 | 94 | 1013.3 |
| 20260831065719 | 56 | 72 | 2.0 | 8.0 | 0.00 | 0.00 | 0.00 | 94 | 1013.4 |
| 20260831065703 | 56 | 68 | 2.0 | 8.0 | 0.00 | 0.00 | 0.00 | 94 | 1013.4 |
| 20260831065603 | 56 | 70 | 2.0 | 8.0 | 0.00 | 0.00 | 0.00 | 94 | 1013.4 |
| 20260831065520 | 56 | 71 | 1.0 | 8.0 | 0.00 | 0.00 | 0.00 | 94 | 1013.4 |
| 20260831065416 | 56 | 77 | 3.0 | 8.0 | 0.00 | 0.00 | 0.00 | 94 | 1013.4 |
| 20260831065403 | 56 | 83 | 3.0 | 8.0 | 0.00 | 0.00 | 0.00 | 94 | 1013.4 |
| 20260831065103 | 56 | 97 | 1.0 | 6.0 | 0.00 | 0.00 | 0.00 | 93 | 1013.3 |
| 20260831065003 | 56 | 90 | 2.0 | 6.0 | 0.00 | 0.00 | 0.00 | 93 | 1013.3 |
| 20260831064903 | 56 | 86 | 1.0 | 6.0 | 0.00 | 0.00 | 0.00 | 93 | 1013.5 |
| 20260831064803 | 56 | 93 | 1.0 | 6.0 | 0.00 | 0.00 | 0.00 | 93 | 1013.4 |
| 20260831064719 | 56 | 92 | 3.0 | 6.0 | 0.00 | 0.00 | 0.00 | 93 | 1013.5 |
| 20260831064703 | 56 | 93 | 3.0 | 6.0 | 0.00 | 0.00 | 0.00 | 93 | 1013.3 |
| 20260831064617 | 56 | 110 | 2.0 | 6.0 | 0.00 | 0.00 | 0.00 | 93 | 1013.4 |
| 20260831064605 | 56 | 116 | 2.0 | 6.0 | 0.00 | 0.00 | 0.00 | 93 | 1013.4 |
| 20260831064317 | 56 | 108 | 1.0 | 7.0 | 0.00 | 0.00 | 0.00 | 93 | 1013.6 |
| 20260831064303 | 56 | 107 | 0.0 | 7.0 | 0.00 | 0.00 | 0.00 | 93 | 1013.4 |
| 20260831064217 | 56 | 106 | 2.0 | 7.0 | 0.00 | 0.00 | 0.00 | 93 | 1013.4 |
| 20260831064203 | 56 | 104 | 2.0 | 7.0 | 0.00 | 0.00 | 0.00 | 93 | 1013.4 |
| 20260831064017 | 56 | 97 | 3.0 | 7.0 | 0.00 | 0.00 | 0.00 | 93 | 1013.3 |
| 20260831063903 | 56 | 101 | 2.0 | 4.0 | 0.00 | 0.00 | 0.00 | 93 | 1013.3 |
| 20260831063703 | 56 | 102 | 2.0 | 4.0 | 0.00 | 0.00 | 0.00 | 93 | 1013.3 |
| 20260831063604 | 56 | 99 | 2.0 | 4.0 | 0.00 | 0.00 | 0.00 | 93 | 1013.3 |
| 20260831063503 | 56 | 83 | 1.0 | 6.0 | 0.00 | 0.00 | 0.00 | 93 | 1013.1 |
| 20260831063403 | 56 | 66 | 1.0 | 6.0 | 0.00 | 0.00 | 0.00 | 93 | 1013.4 |
| 20260831063303 | 56 | 58 | 1.0 | 6.0 | 0.00 | 0.00 | 0.00 | 93 | 1013.2 |
| 20260831063203 | 56 | 54 | 2.0 | 6.0 | 0.00 | 0.00 | 0.00 | 93 | 1013.5 |
| 20260831063103 | 56 | 62 | 1.0 | 6.0 | 0.00 | 0.00 | 0.00 | 93 | 1013.2 |
| 20260831063017 | 56 | 55 | 4.0 | 6.0 | 0.00 | 0.00 | 0.00 | 93 | 1013.3 |
| 20260831063003 | 56 | 61 | 4.0 | 6.0 | 0.00 | 0.00 | 0.00 | 93 | 1013.3 |
| 20260831062905 | 56 | 72 | 1.0 | 6.0 | 0.00 | 0.00 | 0.00 | 93 | 1013.4 |
| 20260831062617 | 56 | 82 | 1.0 | 4.0 | 0.00 | 0.00 | 0.00 | 93 | 1013.5 |
| 20260831062603 | 56 | 84 | 1.0 | 4.0 | 0.00 | 0.00 | 0.00 | 93 | 1013.5 |
| 20260831062503 | 56 | 89 | 1.0 | 4.0 | 0.00 | 0.00 | 0.00 | 93 | 1013.6 |
| 20260831062305 | 56 | 82 | 2.0 | 6.0 | 0.00 | 0.00 | 0.00 | 93 | 1013.5 |
| 20260831062203 | 56 | 82 | 2.0 | 6.0 | 0.00 | 0.00 | 0.00 | 93 | 1013.5 |
| 20260831062103 | 56 | 74 | 2.0 | 6.0 | 0.00 | 0.00 | 0.00 | 93 | 1013.9 |
| 20260831062003 | 56 | 73 | 2.0 | 6.0 | 0.00 | 0.00 | 0.00 | 93 | 1013.5 |
| 20260831061905 | 56 | 75 | 2.0 | 6.0 | 0.00 | 0.00 | 0.00 | 93 | 1013.5 |
| 20260831061803 | 56 | 69 | 3.0 | 6.0 | 0.00 | 0.00 | 0.00 | 93 | 1013.4 |
| 20260831061703 | 56 | 67 | 1.0 | 6.0 | 0.00 | 0.00 | 0.00 | 93 | 1013.6 |
| 20260831061617 | 56 | 75 | 2.0 | 7.0 | 0.00 | 0.00 | 0.00 | 92 | 1013.4 |
| 20260831061603 | 56 | 79 | 2.0 | 7.0 | 0.00 | 0.00 | 0.00 | 92 | 1013.4 |
| 20260831061503 | 56 | 79 | 2.0 | 7.0 | 0.00 | 0.00 | 0.00 | 92 | 1013.5 |
| 20260831061303 | 56 | 75 | 4.0 | 7.0 | 0.00 | 0.00 | 0.00 | 92 | 1013.6 |
| 20260831061203 | 56 | 80 | 2.0 | 7.0 | 0.00 | 0.00 | 0.00 | 92 | 1013.7 |
| 20260831061104 | 56 | 70 | 2.0 | 7.0 | 0.00 | 0.00 | 0.00 | 92 | 1013.7 |
| 20260831061003 | 56 | 71 | 2.0 | 7.0 | 0.00 | 0.00 | 0.00 | 92 | 1013.6 |
| 20260831060904 | 56 | 69 | 2.0 | 7.0 | 0.00 | 0.00 | 0.00 | 92 | 1013.8 |
| 20260831060803 | 56 | 68 | 3.0 | 7.0 | 0.00 | 0.00 | 0.00 | 92 | 1013.5 |
| 20260831060703 | 56 | 61 | 1.0 | 6.0 | 0.00 | 0.00 | 0.00 | 92 | 1013.7 |
| 20260831060603 | 56 | 62 | 1.0 | 6.0 | 0.00 | 0.00 | 0.00 | 92 | 1013.7 |
| 20260831060503 | 56 | 63 | 2.0 | 6.0 | 0.00 | 0.00 | 0.00 | 92 | 1013.9 |
| 20260831060403 | 56 | 67 | 2.0 | 6.0 | 0.00 | 0.00 | 0.00 | 92 | 1014.1 |
| 20260831060305 | 56 | 73 | 3.0 | 6.0 | 0.00 | 0.00 | 0.00 | 92 | 1013.7 |
| 20260831060203 | 56 | 80 | 2.0 | 6.0 | 0.00 | 0.00 | 0.00 | 92 | 1014.0 |
| 20260831060105 | 56 | 78 | 1.0 | 6.0 | 0.00 | 0.00 | 0.00 | 92 | 1014.0 |
| 20260831060003 | 56 | 70 | 2.0 | 6.0 | 0.00 | 0.00 | 0.00 | 92 | 1013.9 |
| 20260831055903 | 56 | 71 | 2.0 | 6.0 | 0.00 | 0.00 | 0.00 | 92 | 1013.9 |
| 20260831055803 | 56 | 56 | 2.0 | 6.0 | 0.00 | 0.00 | 0.00 | 92 | 1014.2 |
| 20260831055708 | 56 | 50 | 2.0 | 6.0 | 0.00 | 0.00 | 0.00 | 92 | 1013.8 |
| 20260831055603 | 56 | 39 | 2.0 | 8.0 | 0.00 | 0.00 | 0.00 | 92 | 1014.0 |
| 20260831055503 | 56 | 53 | 2.0 | 8.0 | 0.00 | 0.00 | 0.00 | 92 | 1013.9 |
| 20260831055418 | 56 | 48 | 1.0 | 8.0 | 0.00 | 0.00 | 0.00 | 92 | 1014.1 |
| 20260831055403 | 56 | 51 | 1.0 | 8.0 | 0.00 | 0.00 | 0.00 | 92 | 1014.1 |
| 20260831055317 | 56 | 61 | 2.0 | 8.0 | 0.00 | 0.00 | 0.00 | 92 | 1013.8 |
| 20260831055306 | 56 | 66 | 2.0 | 8.0 | 0.00 | 0.00 | 0.00 | 92 | 1013.8 |
| 20260831055120 | 56 | 77 | 4.0 | 8.0 | 0.00 | 0.00 | 0.00 | 91 | 1014.2 |
| 20260831055003 | 56 | 66 | 0.0 | 7.0 | 0.00 | 0.00 | 0.00 | 91 | 1013.9 |
| 20260831054818 | 56 | 53 | 2.0 | 7.0 | 0.00 | 0.00 | 0.00 | 91 | 1014.4 |
| 20260831054803 | 56 | 51 | 2.0 | 7.0 | 0.00 | 0.00 | 0.00 | 91 | 1014.4 |
| 20260831054703 | 56 | 64 | 2.0 | 7.0 | 0.00 | 0.00 | 0.00 | 91 | 1014.1 |
| 20260831054503 | 56 | 78 | 4.0 | 7.0 | 0.00 | 0.00 | 0.00 | 91 | 1014.1 |
| 20260831054405 | 56 | 79 | 3.0 | 7.0 | 0.00 | 0.00 | 0.00 | 91 | 1014.0 |
| 20260831054303 | 56 | 88 | 2.0 | 6.0 | 0.00 | 0.00 | 0.00 | 91 | 1014.2 |
| 20260831054203 | 56 | 91 | 2.0 | 6.0 | 0.00 | 0.00 | 0.00 | 91 | 1014.0 |
| 20260831054103 | 56 | 86 | 1.0 | 6.0 | 0.00 | 0.00 | 0.00 | 91 | 1014.0 |
| 20260831054003 | 56 | 85 | 2.0 | 6.0 | 0.00 | 0.00 | 0.00 | 91 | 1014.1 |
| 20260831053903 | 56 | 89 | 2.0 | 6.0 | 0.00 | 0.00 | 0.00 | 91 | 1014.3 |
| 20260831053803 | 56 | 91 | 3.0 | 6.0 | 0.00 | 0.00 | 0.00 | 91 | 1014.1 |
| 20260831053703 | 56 | 86 | 2.0 | 6.0 | 0.00 | 0.00 | 0.00 | 91 | 1014.2 |
| 20260831053603 | 56 | 83 | 2.0 | 6.0 | 0.00 | 0.00 | 0.00 | 91 | 1014.2 |
| 20260831053503 | 56 | 86 | 1.0 | 6.0 | 0.00 | 0.00 | 0.00 | 90 | 1014.1 |
| 20260831053403 | 56 | 85 | 1.0 | 6.0 | 0.00 | 0.00 | 0.00 | 90 | 1014.3 |
| 20260831053303 | 56 | 80 | 2.0 | 6.0 | 0.00 | 0.00 | 0.00 | 90 | 1014.2 |
| 20260831053203 | 56 | 74 | 2.0 | 6.0 | 0.00 | 0.00 | 0.00 | 90 | 1014.3 |
| 20260831053104 | 56 | 66 | 1.0 | 6.0 | 0.00 | 0.00 | 0.00 | 90 | 1014.4 |
| 20260831053004 | 56 | 66 | 0.0 | 6.0 | 0.00 | 0.00 | 0.00 | 90 | 1014.5 |
| 20260831052903 | 56 | 67 | 0.0 | 6.0 | 0.00 | 0.00 | 0.00 | 90 | 1014.5 |
| 20260831052803 | 56 | 63 | 1.0 | 6.0 | 0.00 | 0.00 | 0.00 | 90 | 1014.4 |
| 20260831052703 | 56 | 59 | 2.0 | 7.0 | 0.00 | 0.00 | 0.00 | 90 | 1014.2 |
| 20260831052603 | 56 | 66 | 0.0 | 7.0 | 0.00 | 0.00 | 0.00 | 90 | 1014.3 |
| 20260831052503 | 56 | 63 | 1.0 | 7.0 | 0.00 | 0.00 | 0.00 | 90 | 1014.5 |
| 20260831052403 | 56 | 68 | 1.0 | 7.0 | 0.00 | 0.00 | 0.00 | 90 | 1014.2 |
| 20260831052306 | 56 | 70 | 1.0 | 7.0 | 0.00 | 0.00 | 0.00 | 90 | 1014.3 |
| 20260831052204 | 56 | 76 | 2.0 | 7.0 | 0.00 | 0.00 | 0.00 | 90 | 1014.3 |
| 20260831052118 | 56 | 82 | 2.0 | 8.0 | 0.00 | 0.00 | 0.00 | 89 | 1014.4 |
| 20260831052103 | 56 | 85 | 2.0 | 8.0 | 0.00 | 0.00 | 0.00 | 89 | 1014.4 |
| 20260831052003 | 56 | 94 | 1.0 | 8.0 | 0.00 | 0.00 | 0.00 | 89 | 1014.2 |
| 20260831051803 | 56 | 80 | 0.0 | 8.0 | 0.00 | 0.00 | 0.00 | 89 | 1014.4 |
| 20260831051705 | 56 | 89 | 4.0 | 8.0 | 0.00 | 0.00 | 0.00 | 89 | 1014.4 |
| 20260831051603 | 56 | 76 | 5.0 | 8.0 | 0.00 | 0.00 | 0.00 | 89 | 1014.3 |
| 20260831051503 | 56 | 61 | 4.0 | 8.0 | 0.00 | 0.00 | 0.00 | 89 | 1014.4 |
| 20260831051403 | 56 | 76 | 0.0 | 8.0 | 0.00 | 0.00 | 0.00 | 89 | 1014.4 |
| 20260831051303 | 56 | 76 | 0.0 | 8.0 | 0.00 | 0.00 | 0.00 | 89 | 1014.5 |
| 20260831051203 | 56 | 68 | 3.0 | 8.0 | 0.00 | 0.00 | 0.00 | 89 | 1014.3 |
| 20260831051103 | 56 | 73 | 0.0 | 8.0 | 0.00 | 0.00 | 0.00 | 89 | 1014.4 |
| 20260831051003 | 56 | 73 | 2.0 | 8.0 | 0.00 | 0.00 | 0.00 | 89 | 1014.2 |
| 20260831050903 | 56 | 92 | 3.0 | 8.0 | 0.00 | 0.00 | 0.00 | 89 | 1014.4 |
| 20260831050803 | 56 | 102 | 4.0 | 8.0 | 0.00 | 0.00 | 0.00 | 89 | 1014.5 |
| 20260831050703 | 56 | 103 | 3.0 | 8.0 | 0.00 | 0.00 | 0.00 | 89 | 1014.5 |
| 20260831050603 | 56 | 105 | 2.0 | 8.0 | 0.00 | 0.00 | 0.00 | 89 | 1014.4 |
| 20260831050503 | 56 | 88 | 2.0 | 8.0 | 0.00 | 0.00 | 0.00 | 88 | 1014.7 |
| 20260831050403 | 56 | 79 | 4.0 | 8.0 | 0.00 | 0.00 | 0.00 | 88 | 1014.4 |
| 20260831050303 | 56 | 66 | 3.0 | 9.0 | 0.00 | 0.00 | 0.00 | 88 | 1014.4 |
| 20260831050203 | 56 | 64 | 3.0 | 9.0 | 0.00 | 0.00 | 0.00 | 88 | 1014.4 |
| 20260831050103 | 56 | 59 | 3.0 | 9.0 | 0.00 | 0.00 | 0.00 | 88 | 1014.4 |
| 20260831050003 | 56 | 64 | 2.0 | 9.0 | 0.00 | 0.00 | 0.00 | 88 | 1014.6 |
| 20260831045903 | 56 | 73 | 0.0 | 9.0 | 0.00 | 0.00 | 0.00 | 88 | 1014.5 |
| 20260831045803 | 56 | 85 | 4.0 | 9.0 | 0.00 | 0.00 | 0.00 | 88 | 1014.4 |
| 20260831045703 | 56 | 98 | 0.0 | 6.0 | 0.00 | 0.00 | 0.00 | 88 | 1014.6 |
| 20260831045603 | 56 | 97 | 0.0 | 6.0 | 0.00 | 0.00 | 0.00 | 88 | 1014.5 |
| 20260831045503 | 56 | 109 | 2.0 | 6.0 | 0.00 | 0.00 | 0.00 | 88 | 1014.6 |
| 20260831045403 | 56 | 114 | 2.0 | 6.0 | 0.00 | 0.00 | 0.00 | 88 | 1014.5 |
| 20260831045306 | 56 | 90 | 0.0 | 4.0 | 0.00 | 0.00 | 0.00 | 88 | 1014.7 |
| 20260831045203 | 56 | 88 | 0.0 | 4.0 | 0.00 | 0.00 | 0.00 | 88 | 1014.5 |
| 20260831045103 | 56 | 83 | 1.0 | 4.0 | 0.00 | 0.00 | 0.00 | 88 | 1014.7 |
| 20260831045003 | 56 | 72 | 0.0 | 4.0 | 0.00 | 0.00 | 0.00 | 88 | 1014.7 |
| 20260831044903 | 56 | 86 | 0.0 | 6.0 | 0.00 | 0.00 | 0.00 | 87 | 1014.7 |
| 20260831044803 | 56 | 85 | 2.0 | 6.0 | 0.00 | 0.00 | 0.00 | 87 | 1014.5 |
| 20260831044703 | 56 | 88 | 1.0 | 7.0 | 0.00 | 0.00 | 0.00 | 87 | 1014.7 |
| 20260831044616 | 56 | 97 | 0.0 | 7.0 | 0.00 | 0.00 | 0.00 | 87 | 1014.6 |
| 20260831044603 | 56 | 98 | 0.0 | 7.0 | 0.00 | 0.00 | 0.00 | 87 | 1014.6 |
| 20260831044503 | 56 | 101 | 0.0 | 7.0 | 0.00 | 0.00 | 0.00 | 87 | 1014.5 |
| 20260831044303 | 56 | 100 | 3.0 | 7.0 | 0.00 | 0.00 | 0.00 | 87 | 1014.7 |
| 20260831044203 | 56 | 98 | 2.0 | 7.0 | 0.00 | 0.00 | 0.00 | 87 | 1014.6 |
| 20260831044103 | 56 | 92 | 3.0 | 7.0 | 0.00 | 0.00 | 0.00 | 87 | 1014.5 |
| 20260831044003 | 56 | 86 | 2.0 | 7.0 | 0.00 | 0.00 | 0.00 | 87 | 1014.8 |
| 20260831043905 | 56 | 100 | 1.0 | 7.0 | 0.00 | 0.00 | 0.00 | 87 | 1014.7 |
| 20260831043803 | 56 | 95 | 2.0 | 7.0 | 0.00 | 0.00 | 0.00 | 87 | 1014.8 |
| 20260831043703 | 56 | 80 | 3.0 | 7.0 | 0.00 | 0.00 | 0.00 | 87 | 1014.5 |
| 20260831043603 | 56 | 91 | 0.0 | 6.0 | 0.00 | 0.00 | 0.00 | 87 | 1014.7 |
| 20260831043503 | 56 | 81 | 1.0 | 7.0 | 0.00 | 0.00 | 0.00 | 87 | 1014.6 |
| 20260831043417 | 56 | 77 | 2.0 | 7.0 | 0.00 | 0.00 | 0.00 | 87 | 1014.7 |
| 20260831043403 | 56 | 80 | 2.0 | 7.0 | 0.00 | 0.00 | 0.00 | 87 | 1014.7 |
| 20260831043303 | 56 | 77 | 2.0 | 7.0 | 0.00 | 0.00 | 0.00 | 87 | 1014.6 |
| 20260831043103 | 56 | 94 | 4.0 | 7.0 | 0.00 | 0.00 | 0.00 | 86 | 1014.6 |
| 20260831043003 | 56 | 110 | 3.0 | 6.0 | 0.00 | 0.00 | 0.00 | 86 | 1014.5 |
| 20260831042903 | 56 | 101 | 2.0 | 6.0 | 0.00 | 0.00 | 0.00 | 86 | 1014.6 |
| 20260831042817 | 56 | 86 | 1.0 | 6.0 | 0.00 | 0.00 | 0.00 | 86 | 1014.4 |
| 20260831042803 | 56 | 81 | 1.0 | 6.0 | 0.00 | 0.00 | 0.00 | 86 | 1014.4 |
| 20260831042703 | 57 | 65 | 2.0 | 6.0 | 0.00 | 0.00 | 0.00 | 86 | 1014.7 |
| 20260831042503 | 57 | 64 | 3.0 | 6.0 | 0.00 | 0.00 | 0.00 | 86 | 1014.6 |
| 20260831042417 | 57 | 68 | 2.0 | 6.0 | 0.00 | 0.00 | 0.00 | 86 | 1014.6 |
| 20260831042403 | 57 | 67 | 2.0 | 6.0 | 0.00 | 0.00 | 0.00 | 86 | 1014.6 |
| 20260831042318 | 57 | 75 | 2.0 | 6.0 | 0.00 | 0.00 | 0.00 | 86 | 1014.5 |
| 20260831042306 | 57 | 82 | 2.0 | 6.0 | 0.00 | 0.00 | 0.00 | 86 | 1014.4 |
| 20260831042217 | 57 | 97 | 2.0 | 6.0 | 0.00 | 0.00 | 0.00 | 86 | 1014.6 |
| 20260831041903 | 57 | 113 | 1.0 | 9.0 | 0.00 | 0.00 | 0.00 | 86 | 1014.2 |
| 20260831041803 | 57 | 119 | 2.0 | 9.0 | 0.00 | 0.00 | 0.00 | 85 | 1014.6 |
| 20260831041703 | 57 | 131 | 3.0 | 9.0 | 0.00 | 0.00 | 0.00 | 85 | 1014.5 |
| 20260831041603 | 57 | 152 | 4.0 | 9.0 | 0.00 | 0.00 | 0.00 | 85 | 1014.4 |
| 20260831041503 | 57 | 124 | 2.0 | 13.0 | 0.00 | 0.00 | 0.00 | 85 | 1014.5 |
| 20260831041418 | 57 | 111 | 2.0 | 13.0 | 0.00 | 0.00 | 0.00 | 85 | 1014.3 |
| 20260831041404 | 57 | 107 | 2.0 | 13.0 | 0.00 | 0.00 | 0.00 | 85 | 1014.3 |
| 20260831041304 | 57 | 86 | 2.0 | 13.0 | 0.00 | 0.00 | 0.00 | 85 | 1014.3 |
| 20260831041117 | 57 | 73 | 2.0 | 13.0 | 0.00 | 0.00 | 0.00 | 85 | 1014.6 |
| 20260831041103 | 57 | 73 | 3.0 | 13.0 | 0.00 | 0.00 | 0.00 | 85 | 1014.6 |
| 20260831041018 | 57 | 79 | 4.0 | 13.0 | 0.00 | 0.00 | 0.00 | 85 | 1014.4 |
| 20260831040703 | 57 | 74 | 4.0 | 8.0 | 0.00 | 0.00 | 0.00 | 85 | 1014.4 |
| 20260831040603 | 57 | 80 | 4.0 | 8.0 | 0.00 | 0.00 | 0.00 | 85 | 1014.4 |
| 20260831040503 | 57 | 81 | 4.0 | 7.0 | 0.00 | 0.00 | 0.00 | 85 | 1014.5 |
| 20260831040403 | 57 | 91 | 3.0 | 7.0 | 0.00 | 0.00 | 0.00 | 84 | 1014.4 |
| 20260831040318 | 57 | 100 | 2.0 | 9.0 | 0.00 | 0.00 | 0.00 | 84 | 1014.4 |
| 20260831040303 | 57 | 97 | 4.0 | 9.0 | 0.00 | 0.00 | 0.00 | 84 | 1014.5 |
| 20260831040203 | 57 | 81 | 4.0 | 9.0 | 0.00 | 0.00 | 0.00 | 84 | 1014.5 |
| 20260831040003 | 57 | 103 | 3.0 | 11.0 | 0.00 | 0.00 | 0.00 | 84 | 1014.5 |
| 20260831035903 | 57 | 94 | 4.0 | 11.0 | 0.00 | 0.00 | 0.00 | 84 | 1014.3 |
| 20260831035803 | 57 | 92 | 4.0 | 11.0 | 0.00 | 0.00 | 0.00 | 84 | 1014.3 |
| 20260831035703 | 57 | 93 | 4.0 | 11.0 | 0.00 | 0.00 | 0.00 | 84 | 1014.6 |
| 20260831035603 | 57 | 83 | 5.0 | 11.0 | 0.00 | 0.00 | 0.00 | 84 | 1014.5 |
| 20260831035503 | 57 | 72 | 4.0 | 8.0 | 0.00 | 0.00 | 0.00 | 83 | 1014.3 |
| 20260831035403 | 57 | 80 | 4.0 | 9.0 | 0.00 | 0.00 | 0.00 | 83 | 1014.5 |
| 20260831035306 | 57 | 89 | 2.0 | 9.0 | 0.00 | 0.00 | 0.00 | 83 | 1014.5 |
| 20260831035216 | 57 | 93 | 2.0 | 9.0 | 0.00 | 0.00 | 0.00 | 83 | 1014.6 |
| 20260831035203 | 57 | 96 | 2.0 | 9.0 | 0.00 | 0.00 | 0.00 | 83 | 1014.6 |
| 20260831035105 | 57 | 112 | 2.0 | 11.0 | 0.00 | 0.00 | 0.00 | 83 | 1014.6 |
| 20260831034903 | 57 | 84 | 4.0 | 11.0 | 0.00 | 0.00 | 0.00 | 83 | 1014.7 |
| 20260831034803 | 57 | 78 | 4.0 | 11.0 | 0.00 | 0.00 | 0.00 | 83 | 1014.5 |
| 20260831034703 | 58 | 74 | 4.0 | 11.0 | 0.00 | 0.00 | 0.00 | 83 | 1014.7 |
| 20260831034603 | 58 | 72 | 6.0 | 11.0 | 0.00 | 0.00 | 0.00 | 83 | 1014.6 |
| 20260831034503 | 58 | 79 | 4.0 | 9.0 | 0.00 | 0.00 | 0.00 | 83 | 1014.7 |
| 20260831034417 | 58 | 81 | 5.0 | 9.0 | 0.00 | 0.00 | 0.00 | 83 | 1014.8 |
| 20260831034403 | 58 | 83 | 5.0 | 9.0 | 0.00 | 0.00 | 0.00 | 83 | 1014.8 |
| 20260831034303 | 58 | 92 | 4.0 | 9.0 | 0.00 | 0.00 | 0.00 | 83 | 1014.7 |
| 20260831034103 | 58 | 99 | 4.0 | 9.0 | 0.00 | 0.00 | 0.00 | 82 | 1014.7 |
| 20260831034003 | 58 | 87 | 5.0 | 9.0 | 0.00 | 0.00 | 0.00 | 82 | 1014.6 |
| 20260831033918 | 58 | 89 | 2.0 | 9.0 | 0.00 | 0.00 | 0.00 | 82 | 1014.5 |
| 20260831033803 | 58 | 77 | 4.0 | 9.0 | 0.00 | 0.00 | 0.00 | 82 | 1014.4 |
| 20260831033618 | 58 | 73 | 4.0 | 9.0 | 0.00 | 0.00 | 0.00 | 82 | 1014.6 |
| 20260831033604 | 58 | 69 | 4.0 | 9.0 | 0.00 | 0.00 | 0.00 | 82 | 1014.6 |
| 20260831033517 | 58 | 88 | 4.0 | 8.0 | 0.00 | 0.00 | 0.00 | 82 | 1014.4 |
| 20260831033503 | 58 | 93 | 3.0 | 8.0 | 0.00 | 0.00 | 0.00 | 82 | 1014.6 |
| 20260831033203 | 58 | 104 | 2.0 | 8.0 | 0.00 | 0.00 | 0.00 | 82 | 1014.7 |
| 20260831033103 | 58 | 102 | 3.0 | 8.0 | 0.00 | 0.00 | 0.00 | 82 | 1014.5 |
| 20260831033003 | 58 | 79 | 2.0 | 6.0 | 0.00 | 0.00 | 0.00 | 82 | 1014.3 |
| 20260831032903 | 58 | 73 | 4.0 | 6.0 | 0.00 | 0.00 | 0.00 | 81 | 1014.6 |
| 20260831032803 | 58 | 57 | 2.0 | 6.0 | 0.00 | 0.00 | 0.00 | 81 | 1014.4 |
| 20260831032704 | 58 | 57 | 2.0 | 11.0 | 0.00 | 0.00 | 0.00 | 81 | 1014.5 |
| 20260831032603 | 58 | 50 | 4.0 | 11.0 | 0.00 | 0.00 | 0.00 | 81 | 1014.4 |
| 20260831032503 | 58 | 48 | 2.0 | 11.0 | 0.00 | 0.00 | 0.00 | 81 | 1014.2 |
| 20260831032403 | 58 | 51 | 2.0 | 11.0 | 0.00 | 0.00 | 0.00 | 81 | 1014.4 |
| 20260831032306 | 58 | 64 | 2.0 | 11.0 | 0.00 | 0.00 | 0.00 | 81 | 1014.3 |
| 20260831032203 | 58 | 88 | 4.0 | 13.0 | 0.00 | 0.00 | 0.00 | 81 | 1014.2 |
| 20260831032103 | 58 | 104 | 3.0 | 13.0 | 0.00 | 0.00 | 0.00 | 81 | 1014.4 |
| 20260831032003 | 58 | 102 | 3.0 | 13.0 | 0.00 | 0.00 | 0.00 | 81 | 1014.1 |
| 20260831031903 | 58 | 95 | 1.0 | 13.0 | 0.00 | 0.00 | 0.00 | 81 | 1014.4 |
| 20260831031803 | 58 | 92 | 1.0 | 13.0 | 0.00 | 0.00 | 0.00 | 81 | 1014.2 |
| 20260831031703 | 59 | 84 | 5.0 | 13.0 | 0.00 | 0.00 | 0.00 | 81 | 1014.2 |
| 20260831031603 | 59 | 76 | 3.0 | 11.0 | 0.00 | 0.00 | 0.00 | 80 | 1014.2 |
| 20260831031503 | 59 | 81 | 2.0 | 8.0 | 0.00 | 0.00 | 0.00 | 80 | 1014.2 |
| 20260831031403 | 59 | 73 | 2.0 | 8.0 | 0.00 | 0.00 | 0.00 | 80 | 1014.2 |
| 20260831031303 | 59 | 80 | 3.0 | 8.0 | 0.00 | 0.00 | 0.00 | 80 | 1014.2 |
| 20260831031203 | 59 | 84 | 2.0 | 8.0 | 0.00 | 0.00 | 0.00 | 80 | 1014.3 |
| 20260831031103 | 59 | 87 | 2.0 | 8.0 | 0.00 | 0.00 | 0.00 | 80 | 1014.2 |
| 20260831031017 | 59 | 84 | 4.0 | 8.0 | 0.00 | 0.00 | 0.00 | 80 | 1014.4 |
| 20260831031003 | 59 | 88 | 4.0 | 8.0 | 0.00 | 0.00 | 0.00 | 80 | 1014.4 |
| 20260831030923 | 59 | 94 | 2.0 | 8.0 | 0.00 | 0.00 | 0.00 | 80 | 1014.4 |
| 20260831030603 | 59 | 88 | 2.0 | 7.0 | 0.00 | 0.00 | 0.00 | 80 | 1014.2 |
| 20260831030503 | 59 | 92 | 3.0 | 8.0 | 0.00 | 0.00 | 0.00 | 80 | 1014.4 |
| 20260831030417 | 59 | 96 | 2.0 | 8.0 | 0.00 | 0.00 | 0.00 | 80 | 1014.4 |
| 20260831030403 | 59 | 97 | 2.0 | 8.0 | 0.00 | 0.00 | 0.00 | 80 | 1014.4 |
| 20260831030303 | 59 | 94 | 2.0 | 8.0 | 0.00 | 0.00 | 0.00 | 79 | 1014.6 |
| 20260831030003 | 59 | 92 | 4.0 | 8.0 | 0.00 | 0.00 | 0.00 | 79 | 1014.3 |
| 20260831025903 | 59 | 88 | 4.0 | 8.0 | 0.00 | 0.00 | 0.00 | 79 | 1014.4 |
| 20260831025803 | 59 | 94 | 2.0 | 8.0 | 0.00 | 0.00 | 0.00 | 79 | 1014.6 |
| 20260831025717 | 59 | 95 | 3.0 | 8.0 | 0.00 | 0.00 | 0.00 | 79 | 1014.4 |
| 20260831025703 | 59 | 96 | 3.0 | 8.0 | 0.00 | 0.00 | 0.00 | 79 | 1014.4 |
| 20260831025603 | 59 | 101 | 4.0 | 8.0 | 0.00 | 0.00 | 0.00 | 78 | 1014.5 |
| 20260831025417 | 60 | 95 | 4.0 | 9.0 | 0.00 | 0.00 | 0.00 | 78 | 1014.4 |
| 20260831025403 | 60 | 94 | 4.0 | 9.0 | 0.00 | 0.00 | 0.00 | 78 | 1014.4 |
| 20260831025306 | 60 | 90 | 2.0 | 9.0 | 0.00 | 0.00 | 0.00 | 78 | 1014.5 |
| 20260831025218 | 60 | 89 | 2.0 | 11.0 | 0.00 | 0.00 | 0.00 | 78 | 1014.5 |
| 20260831025117 | 60 | 84 | 4.0 | 11.0 | 0.00 | 0.00 | 0.00 | 78 | 1014.4 |
| 20260831025103 | 60 | 82 | 2.0 | 11.0 | 0.00 | 0.00 | 0.00 | 78 | 1014.1 |
| 20260831024803 | 60 | 69 | 3.0 | 11.0 | 0.00 | 0.00 | 0.00 | 77 | 1014.3 |
| 20260831024717 | 60 | 62 | 4.0 | 11.0 | 0.00 | 0.00 | 0.00 | 77 | 1014.5 |
| 20260831024703 | 60 | 61 | 4.0 | 9.0 | 0.00 | 0.00 | 0.00 | 77 | 1014.2 |
| 20260831024618 | 60 | 61 | 2.0 | 11.0 | 0.00 | 0.00 | 0.00 | 77 | 1014.3 |
| 20260831024603 | 60 | 60 | 2.0 | 11.0 | 0.00 | 0.00 | 0.00 | 77 | 1014.3 |
| 20260831024520 | 60 | 58 | 3.0 | 11.0 | 0.00 | 0.00 | 0.00 | 76 | 1014.5 |
| 20260831024203 | 60 | 75 | 4.0 | 11.0 | 0.00 | 0.00 | 0.00 | 76 | 1014.2 |
| 20260831024103 | 60 | 80 | 4.0 | 11.0 | 0.00 | 0.00 | 0.00 | 76 | 1014.3 |
| 20260831024003 | 60 | 85 | 4.0 | 11.0 | 0.00 | 0.00 | 0.00 | 76 | 1014.2 |
| 20260831023903 | 61 | 93 | 5.0 | 11.0 | 0.00 | 0.00 | 0.00 | 75 | 1014.3 |
| 20260831023816 | 61 | 92 | 6.0 | 9.0 | 0.00 | 0.00 | 0.00 | 75 | 1014.4 |
| 20260831023803 | 61 | 91 | 6.0 | 9.0 | 0.00 | 0.00 | 0.00 | 75 | 1014.4 |
| 20260831023717 | 61 | 86 | 3.0 | 7.0 | 0.00 | 0.00 | 0.00 | 75 | 1014.4 |
| 20260831023703 | 61 | 83 | 3.0 | 7.0 | 0.00 | 0.00 | 0.00 | 75 | 1014.4 |
| 20260831023404 | 61 | 69 | 3.0 | 7.0 | 0.00 | 0.00 | 0.00 | 74 | 1014.3 |
| 20260831023303 | 61 | 64 | 2.0 | 9.0 | 0.00 | 0.00 | 0.00 | 74 | 1014.4 |
| 20260831023203 | 61 | 70 | 2.0 | 9.0 | 0.00 | 0.00 | 0.00 | 74 | 1014.3 |
| 20260831023003 | 61 | 64 | 2.0 | 9.0 | 0.00 | 0.00 | 0.00 | 74 | 1014.3 |
| 20260831022918 | 61 | 71 | 3.0 | 9.0 | 0.00 | 0.00 | 0.00 | 74 | 1014.1 |
| 20260831022903 | 61 | 72 | 3.0 | 9.0 | 0.00 | 0.00 | 0.00 | 74 | 1014.1 |
| 20260831022803 | 61 | 75 | 4.0 | 9.0 | 0.00 | 0.00 | 0.00 | 74 | 1014.4 |
| 20260831022717 | 61 | 74 | 2.0 | 7.0 | 0.00 | 0.00 | 0.00 | 74 | 1014.2 |
| 20260831022603 | 61 | 81 | 3.0 | 11.0 | 0.00 | 0.00 | 0.00 | 74 | 1014.3 |
| 20260831022518 | 61 | 84 | 2.0 | 11.0 | 0.00 | 0.00 | 0.00 | 74 | 1014.2 |
| 20260831022403 | 61 | 91 | 2.0 | 11.0 | 0.00 | 0.00 | 0.00 | 74 | 1014.1 |
| 20260831022203 | 62 | 81 | 5.0 | 11.0 | 0.00 | 0.00 | 0.00 | 73 | 1014.1 |
| 20260831022103 | 62 | 137 | 4.0 | 11.0 | 0.00 | 0.00 | 0.00 | 74 | 1014.3 |
| 20260831022003 | 62 | 137 | 2.0 | 11.0 | 0.00 | 0.00 | 0.00 | 74 | 1014.1 |
| 20260831021904 | 62 | 289 | 4.0 | 7.0 | 0.00 | 0.00 | 0.00 | 74 | 1014.4 |
| 20260831021803 | 62 | 102 | 2.0 | 7.0 | 0.00 | 0.00 | 0.00 | 74 | 1014.1 |
| 20260831021703 | 62 | 82 | 2.0 | 7.0 | 0.00 | 0.00 | 0.00 | 74 | 1014.2 |
| 20260831021603 | 62 | 85 | 4.0 | 7.0 | 0.00 | 0.00 | 0.00 | 74 | 1014.2 |
| 20260831021518 | 62 | 71 | 4.0 | 7.0 | 0.00 | 0.00 | 0.00 | 74 | 1014.4 |
| 20260831021503 | 62 | 59 | 2.0 | 8.0 | 0.00 | 0.00 | 0.00 | 74 | 1014.3 |
| 20260831021403 | 62 | 72 | 2.0 | 8.0 | 0.00 | 0.00 | 0.00 | 74 | 1014.3 |
| 20260831021203 | 62 | 102 | 2.0 | 8.0 | 0.00 | 0.00 | 0.00 | 73 | 1014.1 |
| 20260831021116 | 62 | 96 | 4.0 | 8.0 | 0.00 | 0.00 | 0.00 | 73 | 1014.3 |
| 20260831021103 | 62 | 97 | 3.0 | 8.0 | 0.00 | 0.00 | 0.00 | 73 | 1014.3 |
| 20260831021017 | 62 | 111 | 4.0 | 8.0 | 0.00 | 0.00 | 0.00 | 73 | 1014.2 |
| 20260831021003 | 62 | 112 | 4.0 | 8.0 | 0.00 | 0.00 | 0.00 | 73 | 1014.2 |
| 20260831020703 | 62 | 113 | 5.0 | 8.0 | 0.00 | 0.00 | 0.00 | 73 | 1014.2 |
| 20260831020603 | 62 | 111 | 3.0 | 9.0 | 0.00 | 0.00 | 0.00 | 73 | 1014.1 |
| 20260831020503 | 62 | 90 | 3.0 | 9.0 | 0.00 | 0.00 | 0.00 | 73 | 1014.5 |
| 20260831020403 | 62 | 84 | 2.0 | 11.0 | 0.00 | 0.00 | 0.00 | 72 | 1014.2 |
| 20260831020303 | 62 | 88 | 4.0 | 14.0 | 0.00 | 0.00 | 0.00 | 72 | 1014.3 |
| 20260831020203 | 62 | 76 | 4.0 | 14.0 | 0.00 | 0.00 | 0.00 | 72 | 1014.2 |
| 20260831020103 | 62 | 61 | 5.0 | 14.0 | 0.00 | 0.00 | 0.00 | 72 | 1014.1 |
| 20260831020004 | 63 | 64 | 6.0 | 14.0 | 0.00 | 0.00 | 0.00 | 72 | 1014.3 |
| 20260831015903 | 63 | 64 | 6.0 | 14.0 | 0.00 | 0.00 | 0.00 | 71 | 1014.2 |
| 20260831015803 | 63 | 64 | 5.0 | 11.0 | 0.00 | 0.00 | 0.00 | 71 | 1014.3 |
| 20260831015703 | 63 | 67 | 5.0 | 11.0 | 0.00 | 0.00 | 0.00 | 71 | 1014.4 |
| 20260831015604 | 63 | 75 | 4.0 | 9.0 | 0.00 | 0.00 | 0.00 | 71 | 1014.2 |
| 20260831015503 | 63 | 80 | 3.0 | 11.0 | 0.00 | 0.00 | 0.00 | 71 | 1014.0 |
| 20260831015417 | 63 | 83 | 4.0 | 11.0 | 0.00 | 0.00 | 0.00 | 71 | 1014.0 |
| 20260831015403 | 63 | 86 | 4.0 | 11.0 | 0.00 | 0.00 | 0.00 | 71 | 1014.0 |
| 20260831015305 | 63 | 84 | 4.0 | 11.0 | 0.00 | 0.00 | 0.00 | 70 | 1014.0 |
| 20260831015103 | 63 | 103 | 6.0 | 11.0 | 0.00 | 0.00 | 0.00 | 70 | 1014.1 |
| 20260831015003 | 63 | 123 | 7.0 | 11.0 | 0.00 | 0.00 | 0.00 | 70 | 1014.3 |
| 20260831014917 | 63 | 122 | 6.0 | 11.0 | 0.00 | 0.00 | 0.00 | 70 | 1014.4 |
| 20260831014903 | 63 | 116 | 6.0 | 11.0 | 0.00 | 0.00 | 0.00 | 70 | 1014.4 |
| 20260831014803 | 63 | 105 | 3.0 | 11.0 | 0.00 | 0.00 | 0.00 | 70 | 1014.2 |
| 20260831014717 | 63 | 86 | 6.0 | 11.0 | 0.00 | 0.00 | 0.00 | 70 | 1014.3 |
| 20260831014603 | 63 | 79 | 4.0 | 9.0 | 0.00 | 0.00 | 0.00 | 70 | 1014.3 |
| 20260831014404 | 63 | 59 | 4.0 | 9.0 | 0.00 | 0.00 | 0.00 | 69 | 1014.3 |
| 20260831014303 | 63 | 58 | 2.0 | 9.0 | 0.00 | 0.00 | 0.00 | 69 | 1014.4 |
| 20260831014203 | 63 | 64 | 2.0 | 9.0 | 0.00 | 0.00 | 0.00 | 69 | 1014.2 |
| 20260831014103 | 63 | 75 | 4.0 | 9.0 | 0.00 | 0.00 | 0.00 | 69 | 1014.2 |
| 20260831014003 | 63 | 63 | 2.0 | 8.0 | 0.00 | 0.00 | 0.00 | 69 | 1014.2 |
| 20260831013903 | 63 | 75 | 2.0 | 11.0 | 0.00 | 0.00 | 0.00 | 69 | 1014.4 |
| 20260831013818 | 63 | 84 | 3.0 | 11.0 | 0.00 | 0.00 | 0.00 | 69 | 1014.3 |
| 20260831013803 | 63 | 83 | 3.0 | 11.0 | 0.00 | 0.00 | 0.00 | 69 | 1014.3 |
| 20260831013703 | 63 | 77 | 2.0 | 11.0 | 0.00 | 0.00 | 0.00 | 69 | 1014.3 |
| 20260831013503 | 63 | 94 | 6.0 | 11.0 | 0.00 | 0.00 | 0.00 | 69 | 1014.3 |
| 20260831013403 | 63 | 99 | 4.0 | 13.0 | 0.00 | 0.00 | 0.00 | 69 | 1014.4 |
| 20260831013303 | 63 | 97 | 3.0 | 13.0 | 0.00 | 0.00 | 0.00 | 68 | 1014.4 |
| 20260831013204 | 64 | 99 | 4.0 | 13.0 | 0.00 | 0.00 | 0.00 | 68 | 1014.2 |
| 20260831013017 | 64 | 105 | 4.0 | 13.0 | 0.00 | 0.00 | 0.00 | 68 | 1014.3 |
| 20260831013003 | 64 | 104 | 4.0 | 13.0 | 0.00 | 0.00 | 0.00 | 68 | 1014.3 |
| 20260831012903 | 64 | 114 | 4.0 | 13.0 | 0.00 | 0.00 | 0.00 | 68 | 1014.2 |
| 20260831012705 | 64 | 120 | 4.0 | 11.0 | 0.00 | 0.00 | 0.00 | 68 | 1014.4 |
| 20260831012603 | 64 | 113 | 4.0 | 11.0 | 0.00 | 0.00 | 0.00 | 68 | 1014.3 |
| 20260831012518 | 64 | 103 | 6.0 | 11.0 | 0.00 | 0.00 | 0.00 | 68 | 1014.3 |
| 20260831012503 | 64 | 99 | 6.0 | 11.0 | 0.00 | 0.00 | 0.00 | 68 | 1014.3 |
| 20260831012418 | 64 | 98 | 6.0 | 11.0 | 0.00 | 0.00 | 0.00 | 68 | 1014.1 |
| 20260831012403 | 64 | 97 | 6.0 | 11.0 | 0.00 | 0.00 | 0.00 | 68 | 1014.1 |
| 20260831012103 | 64 | 79 | 4.0 | 11.0 | 0.00 | 0.00 | 0.00 | 68 | 1014.3 |
| 20260831012005 | 64 | 77 | 3.0 | 11.0 | 0.00 | 0.00 | 0.00 | 68 | 1014.4 |
| 20260831011903 | 64 | 65 | 4.0 | 11.0 | 0.00 | 0.00 | 0.00 | 67 | 1014.1 |
| 20260831011803 | 64 | 77 | 4.0 | 11.0 | 0.00 | 0.00 | 0.00 | 67 | 1014.3 |
| 20260831011703 | 64 | 86 | 4.0 | 11.0 | 0.00 | 0.00 | 0.00 | 67 | 1014.2 |
| 20260831011503 | 64 | 101 | 5.0 | 11.0 | 0.00 | 0.00 | 0.00 | 67 | 1014.0 |
| 20260831011403 | 64 | 109 | 4.0 | 11.0 | 0.00 | 0.00 | 0.00 | 67 | 1014.0 |
| 20260831011303 | 64 | 99 | 4.0 | 11.0 | 0.00 | 0.00 | 0.00 | 67 | 1014.2 |
| 20260831011203 | 64 | 92 | 4.0 | 11.0 | 0.00 | 0.00 | 0.00 | 67 | 1014.1 |
| 20260831011103 | 64 | 91 | 7.0 | 11.0 | 0.00 | 0.00 | 0.00 | 67 | 1014.1 |
| 20260831011003 | 64 | 86 | 3.0 | 9.0 | 0.00 | 0.00 | 0.00 | 67 | 1014.1 |
| 20260831010903 | 64 | 87 | 3.0 | 9.0 | 0.00 | 0.00 | 0.00 | 67 | 1014.1 |
| 20260831010803 | 64 | 85 | 3.0 | 9.0 | 0.00 | 0.00 | 0.00 | 67 | 1014.3 |
| 20260831010703 | 64 | 79 | 4.0 | 9.0 | 0.00 | 0.00 | 0.00 | 67 | 1014.1 |
| 20260831010603 | 64 | 18 | 3.0 | 9.0 | 0.00 | 0.00 | 0.00 | 67 | 1014.0 |
| 20260831010504 | 64 | 355 | 2.0 | 9.0 | 0.00 | 0.00 | 0.00 | 67 | 1014.2 |
| 20260831010418 | 64 | 115 | 2.0 | 9.0 | 0.00 | 0.00 | 0.00 | 66 | 1014.2 |
| 20260831010403 | 64 | 137 | 2.0 | 9.0 | 0.00 | 0.00 | 0.00 | 66 | 1014.2 |
| 20260831010303 | 64 | 105 | 3.0 | 11.0 | 0.00 | 0.00 | 0.00 | 66 | 1014.0 |
| 20260831010003 | 65 | 90 | 3.0 | 11.0 | 0.00 | 0.00 | 0.00 | 66 | 1013.8 |
| 20260831005903 | 65 | 78 | 5.0 | 11.0 | 0.00 | 0.00 | 0.00 | 66 | 1013.6 |
| 20260831005803 | 65 | 79 | 5.0 | 11.0 | 0.00 | 0.00 | 0.00 | 66 | 1013.9 |
| 20260831005703 | 65 | 71 | 5.0 | 11.0 | 0.00 | 0.00 | 0.00 | 66 | 1014.0 |
| 20260831005603 | 65 | 79 | 5.0 | 11.0 | 0.00 | 0.00 | 0.00 | 66 | 1013.6 |
| 20260831005504 | 65 | 86 | 5.0 | 11.0 | 0.00 | 0.00 | 0.00 | 66 | 1013.9 |
| 20260831005403 | 65 | 81 | 6.0 | 13.0 | 0.00 | 0.00 | 0.00 | 66 | 1013.8 |
| 20260831005306 | 65 | 86 | 4.0 | 13.0 | 0.00 | 0.00 | 0.00 | 66 | 1014.0 |
| 20260831005203 | 65 | 118 | 4.0 | 13.0 | 0.00 | 0.00 | 0.00 | 66 | 1014.1 |
| 20260831005103 | 65 | 76 | 4.0 | 13.0 | 0.00 | 0.00 | 0.00 | 66 | 1013.8 |
| 20260831005003 | 65 | 45 | 4.0 | 13.0 | 0.00 | 0.00 | 0.00 | 66 | 1014.0 |
| 20260831004903 | 65 | 53 | 5.0 | 13.0 | 0.00 | 0.00 | 0.00 | 66 | 1014.1 |
| 20260831004803 | 65 | 85 | 5.0 | 11.0 | 0.00 | 0.00 | 0.00 | 66 | 1013.9 |
| 20260831004703 | 65 | 72 | 4.0 | 9.0 | 0.00 | 0.00 | 0.00 | 66 | 1013.9 |
| 20260831004603 | 65 | 62 | 4.0 | 13.0 | 0.00 | 0.00 | 0.00 | 66 | 1014.0 |
| 20260831004503 | 65 | 72 | 4.0 | 18.0 | 0.00 | 0.00 | 0.00 | 66 | 1013.9 |
| 20260831004403 | 65 | 79 | 4.0 | 18.0 | 0.00 | 0.00 | 0.00 | 66 | 1014.2 |
| 20260831004303 | 66 | 80 | 4.0 | 18.0 | 0.00 | 0.00 | 0.00 | 65 | 1014.0 |
| 20260831004204 | 66 | 101 | 4.0 | 18.0 | 0.00 | 0.00 | 0.00 | 65 | 1013.9 |
| 20260831004103 | 66 | 111 | 6.0 | 18.0 | 0.00 | 0.00 | 0.00 | 64 | 1013.7 |
| 20260831004016 | 66 | 122 | 8.0 | 18.0 | 0.00 | 0.00 | 0.00 | 64 | 1014.0 |
| 20260831004003 | 66 | 127 | 8.0 | 18.0 | 0.00 | 0.00 | 0.00 | 64 | 1014.0 |
| 20260831003917 | 66 | 136 | 5.0 | 13.0 | 0.00 | 0.00 | 0.00 | 64 | 1013.9 |
| 20260831003903 | 66 | 134 | 7.0 | 13.0 | 0.00 | 0.00 | 0.00 | 63 | 1014.0 |
| 20260831003603 | 66 | 121 | 5.0 | 13.0 | 0.00 | 0.00 | 0.00 | 63 | 1014.3 |
| 20260831003503 | 66 | 124 | 6.0 | 13.0 | 0.00 | 0.00 | 0.00 | 63 | 1013.8 |
| 20260831003403 | 66 | 127 | 5.0 | 13.0 | 0.00 | 0.00 | 0.00 | 63 | 1013.8 |
| 20260831003303 | 66 | 145 | 8.0 | 13.0 | 0.00 | 0.00 | 0.00 | 63 | 1013.8 |
| 20260831003203 | 66 | 148 | 4.0 | 13.0 | 0.00 | 0.00 | 0.00 | 63 | 1014.0 |
| 20260831003118 | 67 | 147 | 4.0 | 13.0 | 0.00 | 0.00 | 0.00 | 63 | 1014.0 |
| 20260831003103 | 67 | 136 | 4.0 | 11.0 | 0.00 | 0.00 | 0.00 | 63 | 1014.0 |
| 20260831003016 | 67 | 110 | 3.0 | 9.0 | 0.00 | 0.00 | 0.00 | 63 | 1014.0 |
| 20260831003003 | 67 | 104 | 3.0 | 9.0 | 0.00 | 0.00 | 0.00 | 63 | 1014.0 |
| 20260831002703 | 67 | 75 | 4.0 | 11.0 | 0.00 | 0.00 | 0.00 | 63 | 1013.9 |
| 20260831002603 | 67 | 58 | 5.0 | 11.0 | 0.00 | 0.00 | 0.00 | 63 | 1013.9 |
| 20260831002517 | 67 | 61 | 3.0 | 11.0 | 0.00 | 0.00 | 0.00 | 62 | 1014.2 |
| 20260831002503 | 67 | 62 | 3.0 | 11.0 | 0.00 | 0.00 | 0.00 | 62 | 1014.2 |
| 20260831002403 | 67 | 61 | 4.0 | 11.0 | 0.00 | 0.00 | 0.00 | 62 | 1014.1 |
| 20260831002203 | 67 | 78 | 4.0 | 13.0 | 0.00 | 0.00 | 0.00 | 62 | 1013.9 |
| 20260831002103 | 67 | 84 | 4.0 | 13.0 | 0.00 | 0.00 | 0.00 | 62 | 1014.1 |
| 20260831002003 | 67 | 87 | 4.0 | 13.0 | 0.00 | 0.00 | 0.00 | 62 | 1013.9 |
| 20260831001903 | 67 | 101 | 6.0 | 13.0 | 0.00 | 0.00 | 0.00 | 62 | 1014.1 |
| 20260831001817 | 67 | 110 | 5.0 | 11.0 | 0.00 | 0.00 | 0.00 | 63 | 1013.7 |
| 20260831001803 | 67 | 102 | 5.0 | 11.0 | 0.00 | 0.00 | 0.00 | 63 | 1013.7 |
| 20260831001703 | 67 | 91 | 4.0 | 11.0 | 0.00 | 0.00 | 0.00 | 64 | 1014.0 |
| 20260831001517 | 67 | 107 | 2.0 | 11.0 | 0.00 | 0.00 | 0.00 | 64 | 1013.9 |
| 20260831001403 | 67 | 83 | 4.0 | 11.0 | 0.00 | 0.00 | 0.00 | 64 | 1014.0 |
| 20260831001203 | 67 | 105 | 4.0 | 14.0 | 0.00 | 0.00 | 0.00 | 64 | 1014.0 |
| 20260831001103 | 66 | 116 | 6.0 | 14.0 | 0.00 | 0.00 | 0.00 | 65 | 1014.1 |
| 20260831001003 | 66 | 133 | 6.0 | 14.0 | 0.00 | 0.00 | 0.00 | 65 | 1013.9 |